DW0251 Weather Reports


Display with metric or nautical units.
time (UTC)temp
F
wind
direction
speed
MPH
gust
MPH
rain 1hr
in
rain 24hr
in
rain mn
in
humidity
%
barometer
mb
20260905163101 89 159 0.0 8.0 0.00 0.00 0.00 69 1013.6
20260905163006 89 157 0.0 8.0 0.00 0.00 0.00 68 1013.6
20260905162901 88 153 0.0 3.0 0.00 0.00 0.00 70 1013.6
20260905162807 88 169 0.0 3.0 0.00 0.00 0.00 69 1013.6
20260905162701 88 117 0.0 3.0 0.00 0.00 0.00 68 1013.6
20260905162601 88 148 0.0 3.0 0.00 0.00 0.00 69 1013.7
20260905162504 88 142 0.0 3.0 0.00 0.00 0.00 69 1013.6
20260905162402 88 130 0.0 3.0 0.00 0.00 0.00 69 1013.7
20260905162301 88 130 0.0 3.0 0.00 0.00 0.00 69 1013.7
20260905162201 88 178 0.0 3.0 0.00 0.00 0.00 69 1013.7
20260905162103 88 107 0.0 3.0 0.00 0.00 0.00 70 1013.6
20260905161901 88 57 0.0 5.0 0.00 0.00 0.00 71 1013.6
20260905161801 87 81 0.0 5.0 0.00 0.00 0.00 71 1013.5
20260905161601 87 140 0.0 5.0 0.00 0.00 0.00 70 1013.6
20260905161501 87 148 0.0 5.0 0.00 0.00 0.00 71 1013.5
20260905161403 87 126 0.0 8.0 0.00 0.00 0.00 71 1013.6
20260905161308 87 67 0.0 8.0 0.00 0.00 0.00 70 1013.6
20260905161201 87 66 0.0 8.0 0.00 0.00 0.00 70 1013.5
20260905161102 87 158 0.0 8.0 0.00 0.00 0.00 71 1013.5
20260905161003 87 141 0.0 8.0 0.00 0.00 0.00 70 1013.5
20260905160701 87 119 0.0 8.0 0.00 0.00 0.00 70 1013.5
20260905160604 87 153 0.0 8.0 0.00 0.00 0.00 70 1013.6
20260905160501 87 167 0.0 4.0 0.00 0.00 0.00 71 1013.5
20260905160301 86 151 0.0 2.0 0.00 0.00 0.00 71 1013.6
20260905160203 86 132 0.0 2.0 0.00 0.00 0.00 71 1013.6
20260905160101 86 132 0.0 6.0 0.00 0.00 0.00 71 1013.6
20260905160004 86 132 0.0 6.0 0.00 0.00 0.00 72 1013.6
20260905155902 86 67 0.0 6.0 0.00 0.00 0.00 72 1013.6
20260905155701 86 92 0.0 6.0 0.00 0.00 0.00 72 1013.5
20260905155401 86 99 1.0 7.0 0.00 0.00 0.00 71 1013.7
20260905155301 85 159 1.0 8.0 0.00 0.00 0.00 71 1013.7
20260905155201 85 146 1.0 8.0 0.00 0.00 0.00 73 1013.7
20260905155001 85 119 1.0 10.0 0.00 0.00 0.00 73 1013.7
20260905154901 85 188 1.0 10.0 0.00 0.00 0.00 72 1013.6
20260905154801 85 189 1.0 10.0 0.00 0.00 0.00 71 1013.7
20260905154703 85 145 1.0 10.0 0.00 0.00 0.00 71 1013.8
20260905154601 85 153 1.0 10.0 0.00 0.00 0.00 71 1013.8
20260905154502 85 169 1.0 10.0 0.00 0.00 0.00 70 1013.9
20260905154401 85 148 1.0 10.0 0.00 0.00 0.00 70 1013.9
20260905154303 85 156 1.0 10.0 0.00 0.00 0.00 70 1013.9
20260905154200 85 155 1.0 11.0 0.00 0.00 0.00 71 1013.9
20260905154102 85 129 1.0 11.0 0.00 0.00 0.00 71 1014.0
20260905153902 85 182 1.0 11.0 0.00 0.00 0.00 71 1014.1
20260905153601 85 160 1.0 11.0 0.00 0.00 0.00 73 1014.2
20260905153401 84 168 1.0 11.0 0.00 0.00 0.00 73 1014.2
20260905153201 84 172 0.0 11.0 0.00 0.00 0.00 74 1014.1
20260905153105 84 171 0.0 11.0 0.00 0.00 0.00 74 1014.0
20260905153002 84 171 0.0 11.0 0.00 0.00 0.00 74 1014.1
20260905152901 84 175 0.0 11.0 0.00 0.00 0.00 74 1014.0
20260905152801 84 177 0.0 11.0 0.00 0.00 0.00 74 1014.1
20260905152704 84 139 0.0 11.0 0.00 0.00 0.00 75 1014.1
20260905152602 84 195 0.0 5.0 0.00 0.00 0.00 76 1014.0
20260905152501 83 195 0.0 5.0 0.00 0.00 0.00 75 1014.0
20260905152306 83 195 1.0 8.0 0.00 0.00 0.00 76 1013.9
20260905152201 83 195 1.0 8.0 0.00 0.00 0.00 76 1014.0
20260905152101 83 150 1.0 8.0 0.00 0.00 0.00 76 1013.9
20260905152001 83 111 1.0 8.0 0.00 0.00 0.00 76 1013.9
20260905151903 83 111 1.0 8.0 0.00 0.00 0.00 76 1013.9
20260905151801 83 111 1.0 8.0 0.00 0.00 0.00 76 1013.9
20260905151700 83 111 1.0 8.0 0.00 0.00 0.00 75 1013.9
20260905151502 83 138 0.0 8.0 0.00 0.00 0.00 75 1014.0
20260905151401 83 145 0.0 1.0 0.00 0.00 0.00 77 1013.9
20260905151301 82 147 0.0 1.0 0.00 0.00 0.00 77 1013.9
20260905151105 82 90 0.0 8.0 0.00 0.00 0.00 77 1014.0
20260905151001 82 63 0.0 8.0 0.00 0.00 0.00 77 1014.0
20260905150901 82 140 0.0 8.0 0.00 0.00 0.00 78 1013.9
20260905150701 82 134 0.0 8.0 0.00 0.00 0.00 77 1013.8
20260905150602 82 142 0.0 8.0 0.00 0.00 0.00 78 1013.8
20260905150501 82 143 0.0 8.0 0.00 0.00 0.00 78 1013.8
20260905150402 82 145 1.0 8.0 0.00 0.00 0.00 78 1013.8
20260905150302 82 116 2.0 14.0 0.00 0.00 0.00 79 1013.8
20260905150200 82 160 1.0 14.0 0.00 0.00 0.00 78 1013.8
20260905150101 82 160 1.0 14.0 0.00 0.00 0.00 79 1013.7
20260905150005 81 168 2.0 14.0 0.00 0.00 0.00 79 1013.7
20260905145901 81 138 2.0 14.0 0.00 0.00 0.00 78 1013.8
20260905145801 81 170 2.0 14.0 0.00 0.00 0.00 79 1013.7
20260905145701 81 140 2.0 14.0 0.00 0.00 0.00 78 1013.7
20260905145604 81 168 3.0 14.0 0.00 0.00 0.00 77 1013.8
20260905145501 81 158 3.0 15.0 0.00 0.00 0.00 77 1013.8
20260905145401 81 140 3.0 15.0 0.00 0.00 0.00 77 1013.8
20260905145301 81 169 3.0 15.0 0.00 0.00 0.00 78 1013.7
20260905145204 81 135 3.0 15.0 0.00 0.00 0.00 78 1013.8
20260905144901 81 118 3.0 15.0 0.00 0.00 0.00 78 1013.9
20260905144701 81 132 3.0 15.0 0.00 0.00 0.00 77 1014.0
20260905144600 81 147 2.0 14.0 0.00 0.00 0.00 77 1013.9
20260905144501 81 157 2.0 14.0 0.00 0.00 0.00 78 1013.9
20260905144403 81 161 2.0 14.0 0.00 0.00 0.00 78 1013.9
20260905144301 81 71 2.0 14.0 0.00 0.00 0.00 79 1013.9
20260905144201 81 144 2.0 13.0 0.00 0.00 0.00 78 1013.8
20260905144101 81 77 2.0 13.0 0.00 0.00 0.00 79 1013.9
20260905144003 81 148 2.0 13.0 0.00 0.00 0.00 78 1013.9
20260905143901 81 124 2.0 13.0 0.00 0.00 0.00 78 1014.0
20260905143801 81 18 2.0 13.0 0.00 0.00 0.00 78 1014.0
20260905143605 81 138 2.0 13.0 0.00 0.00 0.00 78 1013.9
20260905143401 81 159 2.0 12.0 0.00 0.00 0.00 78 1014.0
20260905143302 81 174 1.0 12.0 0.00 0.00 0.00 80 1014.1
20260905143204 81 94 0.0 9.0 0.00 0.00 0.00 80 1014.1
20260905143101 81 131 1.0 9.0 0.00 0.00 0.00 79 1014.0
20260905143002 80 153 1.0 9.0 0.00 0.00 0.00 80 1014.1
20260905142901 80 150 1.0 9.0 0.00 0.00 0.00 80 1014.0
20260905142803 80 159 1.0 9.0 0.00 0.00 0.00 80 1014.0
20260905142601 80 167 1.0 11.0 0.00 0.00 0.00 80 1014.1
20260905142502 80 126 1.0 11.0 0.00 0.00 0.00 80 1014.1
20260905142403 80 95 2.0 11.0 0.00 0.00 0.00 80 1014.1
20260905142301 80 134 2.0 11.0 0.00 0.00 0.00 80 1014.0
20260905142003 80 161 2.0 13.0 0.00 0.00 0.00 80 1014.1
20260905141900 80 108 2.0 13.0 0.00 0.00 0.00 80 1014.1
20260905141701 80 119 1.0 13.0 0.00 0.00 0.00 81 1014.2
20260905141501 80 103 1.0 13.0 0.00 0.00 0.00 82 1014.2
20260905141402 80 116 1.0 13.0 0.00 0.00 0.00 82 1014.3
20260905141204 79 94 1.0 10.0 0.00 0.00 0.00 82 1014.2
20260905141100 79 113 2.0 10.0 0.00 0.00 0.00 81 1014.2
20260905141001 79 148 2.0 13.0 0.00 0.00 0.00 82 1014.2
20260905140701 79 125 3.0 13.0 0.00 0.00 0.00 82 1014.0
20260905140501 79 84 3.0 13.0 0.00 0.00 0.00 82 1014.0
20260905140403 79 40 3.0 13.0 0.00 0.00 0.00 82 1014.1
20260905140301 79 167 3.0 13.0 0.00 0.00 0.00 82 1014.1
20260905140201 79 69 3.0 13.0 0.00 0.00 0.00 81 1014.0
20260905140007 79 150 2.0 13.0 0.00 0.00 0.00 82 1014.1
20260905135901 79 150 2.0 13.0 0.00 0.00 0.00 83 1014.0
20260905135801 79 125 2.0 13.0 0.00 0.00 0.00 83 1014.0
20260905135703 79 163 2.0 17.0 0.00 0.00 0.00 83 1014.0
20260905135601 79 154 2.0 17.0 0.00 0.00 0.00 83 1014.0
20260905135401 79 92 1.0 17.0 0.00 0.00 0.00 85 1014.0
20260905135306 78 142 1.0 17.0 0.00 0.00 0.00 85 1014.1
20260905135201 78 101 2.0 17.0 0.00 0.00 0.00 84 1014.1
20260905135101 78 142 2.0 17.0 0.00 0.00 0.00 85 1014.1
20260905135001 78 329 1.0 17.0 0.00 0.00 0.00 85 1014.1
20260905134801 78 86 1.0 10.0 0.00 0.00 0.00 86 1014.0
20260905134701 78 123 1.0 10.0 0.00 0.00 0.00 86 1014.1
20260905134601 78 169 1.0 10.0 0.00 0.00 0.00 86 1014.1
20260905134503 78 93 1.0 10.0 0.00 0.00 0.00 86 1014.1
20260905134301 78 123 1.0 10.0 0.00 0.00 0.00 87 1014.1
20260905134104 78 65 1.0 9.0 0.00 0.00 0.00 87 1014.1
20260905134001 78 146 1.0 10.0 0.00 0.00 0.00 87 1014.0
20260905133900 77 153 1.0 10.0 0.00 0.00 0.00 87 1014.0
20260905133801 77 84 1.0 10.0 0.00 0.00 0.00 88 1014.1
20260905133703 77 106 1.0 10.0 0.00 0.00 0.00 88 1014.1
20260905133601 77 88 1.0 10.0 0.00 0.00 0.00 88 1014.1
20260905133500 77 119 1.0 10.0 0.00 0.00 0.00 89 1014.1
20260905133400 77 142 1.0 10.0 0.00 0.00 0.00 89 1014.2
20260905133303 77 161 1.0 10.0 0.00 0.00 0.00 90 1014.1
20260905133201 77 120 1.0 10.0 0.00 0.00 0.00 90 1014.1
20260905133102 77 144 0.0 5.0 0.00 0.00 0.00 90 1014.2
20260905133001 77 145 0.0 5.0 0.00 0.00 0.00 90 1014.1
20260905132903 77 131 1.0 5.0 0.00 0.00 0.00 91 1014.1
20260905132801 77 148 1.0 7.0 0.00 0.00 0.00 91 1014.2
20260905132701 76 114 1.0 7.0 0.00 0.00 0.00 91 1014.1
20260905132601 76 51 1.0 7.0 0.00 0.00 0.00 92 1014.2
20260905132301 76 121 1.0 9.0 0.00 0.00 0.00 94 1014.1
20260905132201 76 103 1.0 9.0 0.00 0.00 0.00 94 1014.1
20260905132103 76 128 1.0 9.0 0.00 0.00 0.00 94 1014.1
20260905131801 76 120 1.0 9.0 0.00 0.00 0.00 95 1014.0
20260905131707 76 145 1.0 9.0 0.00 0.00 0.00 95 1014.0
20260905131602 76 145 1.0 9.0 0.00 0.00 0.00 95 1014.1
20260905131501 75 138 1.0 9.0 0.00 0.00 0.00 95 1014.1
20260905131403 75 94 0.0 10.0 0.00 0.00 0.00 95 1014.1
20260905131301 75 87 0.0 10.0 0.00 0.00 0.00 96 1014.1
20260905131201 75 89 0.0 10.0 0.00 0.00 0.00 96 1014.1
20260905131101 75 119 0.0 10.0 0.00 0.00 0.00 96 1014.2
20260905131003 75 124 0.0 5.0 0.00 0.00 0.00 96 1014.1
20260905130801 75 124 0.0 5.0 0.00 0.00 0.00 96 1014.0
20260905130700 75 146 0.0 5.0 0.00 0.00 0.00 96 1014.1
20260905130501 75 174 0.0 5.0 0.00 0.00 0.00 96 1014.1
20260905130401 74 125 0.0 5.0 0.00 0.00 0.00 96 1014.1
20260905130301 74 100 0.0 5.0 0.00 0.00 0.00 96 1014.1
20260905130204 74 84 0.0 5.0 0.00 0.00 0.00 96 1014.1
20260905130101 74 84 0.0 5.0 0.00 0.00 0.00 96 1014.1
20260905130003 74 84 0.0 5.0 0.00 0.00 0.00 96 1014.1
20260905125903 74 71 0.0 6.0 0.00 0.00 0.00 97 1014.0
20260905125702 74 81 0.0 6.0 0.00 0.00 0.00 97 1014.0
20260905125601 74 140 1.0 6.0 0.00 0.00 0.00 97 1014.1
20260905125401 74 62 1.0 9.0 0.00 0.00 0.00 97 1014.0
20260905125301 74 51 1.0 9.0 0.00 0.00 0.00 97 1014.0
20260905125200 74 91 1.0 9.0 0.00 0.00 0.00 97 1014.1
20260905125103 74 94 1.0 9.0 0.00 0.00 0.00 97 1014.0
20260905125000 74 38 1.0 9.0 0.00 0.00 0.00 97 1013.9
20260905124901 74 60 1.0 9.0 0.00 0.00 0.00 97 1014.0
20260905124801 74 93 1.0 9.0 0.00 0.00 0.00 97 1014.1
20260905124601 74 28 0.0 7.0 0.00 0.00 0.00 97 1014.0
20260905124501 74 70 0.0 1.0 0.00 0.00 0.00 97 1013.7
20260905124401 74 312 0.0 0.0 0.00 0.00 0.00 97 1013.7
20260905124303 74 312 0.0 0.0 0.00 0.00 0.00 97 1013.6
20260905124101 74 312 0.0 0.0 0.00 0.00 0.00 97 1013.6
20260905124001 74 312 0.0 0.0 0.00 0.00 0.00 97 1013.6
20260905123903 74 312 0.0 0.0 0.00 0.00 0.00 97 1013.5
20260905123701 74 312 0.0 0.0 0.00 0.00 0.00 97 1013.5
20260905123600 74 312 0.0 0.0 0.00 0.00 0.00 97 1013.6
20260905123504 74 312 0.0 0.0 0.00 0.00 0.00 97 1013.6
20260905123101 74 312 0.0 0.0 0.00 0.00 0.00 97 1013.5
20260905123001 74 311 0.0 0.0 0.00 0.00 0.00 97 1013.4
20260905122802 74 311 0.0 0.0 0.00 0.00 0.00 97 1013.4
20260905122700 74 311 0.0 0.0 0.00 0.00 0.00 97 1013.5
20260905122501 74 311 0.0 0.0 0.00 0.00 0.00 97 1013.4
20260905122402 74 311 0.0 0.0 0.00 0.00 0.00 97 1013.4
20260905122301 74 311 0.0 0.0 0.00 0.00 0.00 97 1013.4
20260905122201 74 311 0.0 0.0 0.00 0.00 0.00 97 1013.5
20260905122101 74 311 0.0 0.0 0.00 0.00 0.00 97 1013.5
20260905121901 74 311 0.0 0.0 0.00 0.00 0.00 97 1013.4
20260905121801 74 311 0.0 0.0 0.00 0.00 0.00 97 1013.5
20260905121603 74 311 0.0 0.0 0.00 0.00 0.00 97 1013.4
20260905121501 74 311 0.0 0.0 0.00 0.00 0.00 97 1013.4
20260905121301 74 311 0.0 0.0 0.00 0.00 0.00 97 1013.5
20260905121203 74 311 0.0 0.0 0.00 0.00 0.00 97 1013.6
20260905121100 74 311 0.0 0.0 0.00 0.00 0.00 97 1013.5
20260905121002 74 311 0.0 0.0 0.00 0.00 0.00 97 1013.4
20260905120803 74 311 0.0 0.0 0.00 0.00 0.00 97 1013.4
20260905120701 74 311 0.0 0.0 0.00 0.00 0.00 97 1013.4
20260905120601 74 311 0.0 0.0 0.00 0.00 0.00 97 1013.3
20260905120501 74 311 0.0 0.0 0.00 0.00 0.00 97 1013.4
20260905120403 74 311 0.0 0.0 0.00 0.00 0.00 97 1013.3
20260905120301 74 311 0.0 0.0 0.00 0.00 0.00 97 1013.3
20260905120200 74 311 0.0 0.0 0.00 0.00 0.00 97 1013.3
20260905120100 74 311 0.0 0.0 0.00 0.00 0.00 97 1013.2
20260905120006 73 311 0.0 0.0 0.00 0.00 0.00 97 1013.2
20260905115901 73 311 0.0 0.0 0.00 0.00 0.00 97 1013.2
20260905115701 73 311 0.0 0.0 0.00 0.00 0.00 97 1013.1
20260905115604 73 311 0.0 0.0 0.00 0.00 0.00 97 1013.1
20260905115501 73 311 0.0 0.0 0.00 0.00 0.00 97 1013.2
20260905115402 73 311 0.0 0.0 0.00 0.00 0.00 97 1013.2
20260905115301 73 311 0.0 0.0 0.00 0.00 0.00 97 1013.2
20260905115203 73 311 0.0 0.0 0.00 0.00 0.00 97 1013.2
20260905115001 73 311 0.0 0.0 0.00 0.00 0.00 97 1013.1
20260905114804 73 311 0.0 0.0 0.00 0.00 0.00 97 1013.2
20260905114701 73 311 0.0 0.0 0.00 0.00 0.00 97 1013.1
20260905114601 73 311 0.0 0.0 0.00 0.00 0.00 97 1013.1
20260905114502 73 311 0.0 0.0 0.00 0.00 0.00 97 1013.1
20260905114403 73 311 0.0 0.0 0.00 0.00 0.00 97 1013.1
20260905114301 73 311 0.0 0.0 0.00 0.00 0.00 97 1013.1
20260905114101 73 311 0.0 0.0 0.00 0.00 0.00 97 1013.2
20260905113801 73 311 0.0 0.0 0.00 0.00 0.00 97 1013.1
20260905113701 73 311 0.0 0.0 0.00 0.00 0.00 97 1013.0
20260905113500 73 311 0.0 0.0 0.00 0.00 0.00 97 1013.1
20260905113401 73 311 0.0 0.0 0.00 0.00 0.00 97 1013.0
20260905113301 73 311 0.0 0.0 0.00 0.00 0.00 97 1013.0
20260905113203 73 311 0.0 0.0 0.00 0.00 0.00 97 1012.9
20260905113101 73 311 0.0 0.0 0.00 0.00 0.00 96 1013.0
20260905113001 73 311 0.0 0.0 0.00 0.00 0.00 96 1013.0
20260905112701 73 311 0.0 0.0 0.00 0.00 0.00 96 1012.9
20260905112601 73 311 0.0 0.0 0.00 0.00 0.00 96 1012.9
20260905112501 73 311 0.0 0.0 0.00 0.00 0.00 96 1012.9
20260905112403 73 311 0.0 0.0 0.00 0.00 0.00 96 1012.8
20260905112300 73 311 0.0 0.0 0.00 0.00 0.00 96 1012.8
20260905112201 73 311 0.0 0.0 0.00 0.00 0.00 96 1012.8
20260905112102 73 311 0.0 0.0 0.00 0.00 0.00 96 1012.8
20260905112003 73 311 0.0 0.0 0.00 0.00 0.00 96 1012.8
20260905111901 73 311 0.0 0.0 0.00 0.00 0.00 96 1012.8
20260905111802 73 311 0.0 0.0 0.00 0.00 0.00 96 1012.7
20260905111700 73 311 0.0 0.0 0.00 0.00 0.00 96 1012.7
20260905111604 73 311 0.0 0.0 0.00 0.00 0.00 96 1012.7
20260905111501 73 311 0.0 0.0 0.00 0.00 0.00 96 1012.6
20260905111401 73 311 0.0 0.0 0.00 0.00 0.00 96 1012.6
20260905111300 73 311 0.0 0.0 0.00 0.00 0.00 96 1012.6
20260905111100 73 311 0.0 0.0 0.00 0.00 0.00 96 1012.6
20260905111000 73 311 0.0 0.0 0.00 0.00 0.00 97 1012.6
20260905110901 73 311 0.0 0.0 0.00 0.00 0.00 97 1012.6
20260905110802 73 311 0.0 0.0 0.00 0.00 0.00 97 1012.6
20260905110601 73 311 0.0 0.0 0.00 0.00 0.00 97 1012.6
20260905110501 73 311 0.0 0.0 0.00 0.00 0.00 97 1012.6
20260905110402 73 311 0.0 0.0 0.00 0.00 0.00 97 1012.7
20260905110300 73 311 0.0 0.0 0.00 0.00 0.00 97 1012.6
20260905110201 73 311 0.0 0.0 0.00 0.00 0.00 97 1012.6
20260905110101 73 311 0.0 0.0 0.00 0.00 0.00 97 1012.6
20260905105801 73 311 0.0 0.0 0.00 0.00 0.00 97 1012.5
20260905105603 73 311 0.0 0.0 0.00 0.00 0.00 97 1012.6
20260905105501 73 311 0.0 0.0 0.00 0.00 0.00 97 1012.5
20260905105401 73 311 0.0 0.0 0.00 0.00 0.00 97 1012.6
20260905105300 73 311 0.0 0.0 0.00 0.00 0.00 97 1012.5
20260905105205 73 311 0.0 0.0 0.00 0.00 0.00 97 1012.5
20260905105101 73 311 0.0 0.0 0.00 0.00 0.00 97 1012.6
20260905105001 73 311 0.0 0.0 0.00 0.00 0.00 97 1012.6
20260905104901 73 311 0.0 0.0 0.00 0.00 0.00 97 1012.6
20260905104804 73 311 0.0 0.0 0.00 0.00 0.00 97 1012.7
20260905104601 73 311 0.0 0.0 0.00 0.00 0.00 97 1012.7
20260905104501 73 311 0.0 0.0 0.00 0.00 0.00 96 1012.7
20260905104403 73 311 0.0 0.0 0.00 0.00 0.00 96 1012.7
20260905104301 73 311 0.0 0.0 0.00 0.00 0.00 96 1012.7
20260905104201 73 311 0.0 0.0 0.00 0.00 0.00 96 1012.7
20260905104101 73 311 0.0 0.0 0.00 0.00 0.00 96 1012.6
20260905104003 73 311 0.0 0.0 0.00 0.00 0.00 96 1012.6
20260905103800 73 311 0.0 0.0 0.00 0.00 0.00 96 1012.7
20260905103701 73 311 0.0 0.0 0.00 0.00 0.00 96 1012.6
20260905103603 73 311 0.0 0.0 0.00 0.00 0.00 96 1012.7
20260905103501 74 311 0.0 0.0 0.00 0.00 0.00 96 1012.6
20260905103401 74 311 0.0 0.0 0.00 0.00 0.00 96 1012.7
20260905103301 74 311 0.0 0.0 0.00 0.00 0.00 96 1012.7
20260905103203 74 311 0.0 0.0 0.00 0.00 0.00 96 1012.7
20260905103101 74 311 0.0 0.0 0.00 0.00 0.00 96 1012.7
20260905103001 74 311 0.0 0.0 0.00 0.00 0.00 96 1012.8
20260905102900 74 311 0.0 0.0 0.00 0.00 0.00 96 1012.7
20260905102803 74 311 0.0 0.0 0.00 0.00 0.00 96 1012.8
20260905102701 74 311 0.0 0.0 0.00 0.00 0.00 96 1012.8
20260905102600 74 311 0.0 0.0 0.00 0.00 0.00 96 1012.7
20260905102501 74 311 0.0 0.0 0.00 0.00 0.00 96 1012.8
20260905102403 74 311 0.0 0.0 0.00 0.00 0.00 96 1012.8
20260905102301 74 311 0.0 0.0 0.00 0.00 0.00 96 1012.9
20260905102200 74 311 0.0 0.0 0.00 0.00 0.00 96 1012.9
20260905102102 74 311 0.0 0.0 0.00 0.00 0.00 96 1012.8
20260905102003 74 311 0.0 0.0 0.00 0.00 0.00 96 1012.9
20260905101901 74 311 0.0 0.0 0.00 0.00 0.00 96 1012.9
20260905101801 74 311 0.0 0.0 0.00 0.00 0.00 96 1012.9
20260905101701 74 311 0.0 0.0 0.00 0.00 0.00 96 1012.9
20260905101501 74 311 0.0 0.0 0.00 0.00 0.00 96 1012.9
20260905101301 74 311 0.0 0.0 0.00 0.00 0.00 96 1012.8
20260905101203 74 311 0.0 0.0 0.00 0.00 0.00 96 1012.9
20260905101101 74 311 0.0 0.0 0.00 0.00 0.00 96 1012.9
20260905101001 74 311 0.0 0.0 0.00 0.00 0.00 96 1012.9
20260905100901 74 311 0.0 0.0 0.00 0.00 0.00 96 1012.9
20260905100701 74 311 0.0 0.0 0.00 0.00 0.00 96 1012.8
20260905100601 74 311 0.0 0.0 0.00 0.00 0.00 96 1012.8
20260905100501 74 311 0.0 0.0 0.00 0.00 0.00 96 1012.7
20260905100403 74 311 0.0 0.0 0.00 0.00 0.00 96 1012.8
20260905100301 74 311 0.0 0.0 0.00 0.00 0.00 96 1012.8
20260905100202 74 311 0.0 0.0 0.00 0.00 0.00 96 1012.7
20260905100101 74 311 0.0 0.0 0.00 0.00 0.00 96 1012.7
20260905095801 74 311 0.0 0.0 0.00 0.00 0.00 96 1012.8
20260905095701 74 311 0.0 0.0 0.00 0.00 0.00 96 1012.8
20260905095603 74 311 0.0 0.0 0.00 0.00 0.00 96 1012.8
20260905095501 74 311 0.0 0.0 0.00 0.00 0.00 96 1012.7
20260905095401 74 311 0.0 0.0 0.00 0.00 0.00 96 1012.7
20260905095305 74 311 0.0 0.0 0.00 0.00 0.00 96 1012.8
20260905095203 74 311 0.0 0.0 0.00 0.00 0.00 96 1012.8
20260905095101 74 311 0.0 0.0 0.00 0.00 0.00 96 1012.8
20260905095001 74 311 0.0 0.0 0.00 0.00 0.00 96 1012.7
20260905094901 74 311 0.0 0.0 0.00 0.00 0.00 96 1012.6
20260905094803 74 311 0.0 0.0 0.00 0.00 0.00 96 1012.6
20260905094600 74 311 0.0 0.0 0.00 0.00 0.00 96 1012.6
20260905094501 74 311 0.0 0.0 0.00 0.00 0.00 96 1012.6
20260905094402 74 311 0.0 0.0 0.00 0.00 0.00 96 1012.6
20260905094301 74 311 0.0 0.0 0.00 0.00 0.00 96 1012.6
20260905094201 74 311 0.0 0.0 0.00 0.00 0.00 96 1012.6
20260905094101 74 311 0.0 0.0 0.00 0.00 0.00 96 1012.7
20260905094002 74 311 0.0 0.0 0.00 0.00 0.00 96 1012.6
20260905093901 74 311 0.0 0.0 0.00 0.00 0.00 96 1012.7
20260905093701 74 311 0.0 0.0 0.00 0.00 0.00 96 1012.7
20260905093602 74 311 0.0 0.0 0.00 0.00 0.00 96 1012.7
20260905093501 74 311 0.0 0.0 0.00 0.00 0.00 96 1012.6
20260905093401 74 311 0.0 0.0 0.00 0.00 0.00 96 1012.7
20260905093300 74 311 0.0 0.0 0.00 0.00 0.00 96 1012.6
20260905093203 74 311 0.0 0.0 0.00 0.00 0.00 96 1012.6
20260905092900 74 311 0.0 0.0 0.00 0.00 0.00 96 1012.6
20260905092803 74 311 0.0 0.0 0.00 0.00 0.00 96 1012.6
20260905092700 74 311 0.0 0.0 0.00 0.00 0.00 96 1012.6
20260905092601 74 311 0.0 0.0 0.00 0.00 0.00 96 1012.6
20260905092501 74 311 0.0 0.0 0.00 0.00 0.00 96 1012.6
20260905092403 74 311 0.0 0.0 0.00 0.00 0.00 96 1012.6
20260905092301 74 311 0.0 0.0 0.00 0.00 0.00 96 1012.6
20260905092201 74 311 0.0 0.0 0.00 0.00 0.00 96 1012.6
20260905092003 74 311 0.0 0.0 0.00 0.00 0.00 96 1012.6
20260905091801 74 311 0.0 0.0 0.00 0.00 0.00 96 1012.6
20260905091603 74 311 0.0 0.0 0.00 0.00 0.00 96 1012.6
20260905091501 74 311 0.0 0.0 0.00 0.00 0.00 96 1012.6
20260905091402 74 311 0.0 0.0 0.00 0.00 0.00 96 1012.5
20260905091202 74 311 0.0 0.0 0.00 0.00 0.00 96 1012.6
20260905091101 74 311 0.0 0.0 0.00 0.00 0.00 96 1012.5
20260905091001 74 311 0.0 0.0 0.00 0.00 0.00 96 1012.6
20260905090901 74 311 0.0 0.0 0.00 0.00 0.00 96 1012.6
20260905090803 74 311 0.0 0.0 0.00 0.00 0.00 96 1012.6
20260905090701 74 311 0.0 0.0 0.00 0.00 0.00 96 1012.6
20260905090600 74 311 0.0 0.0 0.00 0.00 0.00 96 1012.6
20260905090501 74 311 0.0 0.0 0.00 0.00 0.00 96 1012.6
20260905090301 74 311 0.0 0.0 0.00 0.00 0.00 96 1012.6
20260905090201 74 311 0.0 0.0 0.00 0.00 0.00 96 1012.5
20260905090005 74 311 0.0 0.0 0.00 0.00 0.00 96 1012.6
20260905085902 74 311 0.0 0.0 0.00 0.00 0.00 96 1012.5
20260905085701 74 311 0.0 0.0 0.00 0.00 0.00 96 1012.4
20260905085604 74 311 0.0 0.0 0.00 0.00 0.00 96 1012.4
20260905085501 74 311 0.0 0.0 0.00 0.00 0.00 96 1012.4
20260905085401 74 311 0.0 0.0 0.00 0.00 0.00 96 1012.4
20260905085300 74 311 0.0 0.0 0.00 0.00 0.00 96 1012.4
20260905085203 74 311 0.0 0.0 0.00 0.00 0.00 96 1012.4
20260905085000 74 311 0.0 0.0 0.00 0.00 0.00 96 1012.4
20260905084804 74 311 0.0 0.0 0.00 0.00 0.00 96 1012.4
20260905084701 74 311 0.0 0.0 0.00 0.00 0.00 96 1012.4
20260905084601 74 311 0.0 0.0 0.00 0.00 0.00 96 1012.4
20260905084501 74 311 0.0 0.0 0.00 0.00 0.00 96 1012.4
20260905084402 74 311 0.0 0.0 0.00 0.00 0.00 96 1012.4
20260905084300 74 311 0.0 0.0 0.00 0.00 0.00 96 1012.4
20260905084201 74 311 0.0 0.0 0.00 0.00 0.00 96 1012.3
20260905084101 74 311 0.0 0.0 0.00 0.00 0.00 96 1012.4
20260905084004 74 311 0.0 0.0 0.00 0.00 0.00 96 1012.3
20260905083901 74 311 0.0 0.0 0.00 0.00 0.00 96 1012.3
20260905083801 74 311 0.0 0.0 0.00 0.00 0.00 96 1012.3
20260905083701 74 311 0.0 0.0 0.00 0.00 0.00 96 1012.3
20260905083603 74 311 0.0 0.0 0.00 0.00 0.00 96 1012.3
20260905083401 74 311 0.0 0.0 0.00 0.00 0.00 96 1012.3
20260905083302 74 311 0.0 0.0 0.00 0.00 0.00 96 1012.2
20260905083203 74 311 0.0 0.0 0.00 0.00 0.00 96 1012.2
20260905083100 74 311 0.0 0.0 0.00 0.00 0.00 96 1012.3
20260905083002 74 311 0.0 0.0 0.00 0.00 0.00 96 1012.3
20260905082901 75 311 0.0 0.0 0.00 0.00 0.00 96 1012.3
20260905082700 74 311 0.0 0.0 0.00 0.00 0.00 96 1012.2
20260905082601 75 311 0.0 0.0 0.00 0.00 0.00 96 1012.3
20260905082402 74 311 0.0 0.0 0.00 0.00 0.00 96 1012.2
20260905082301 74 311 0.0 0.0 0.00 0.00 0.00 96 1012.3
20260905082201 75 311 0.0 0.0 0.00 0.00 0.00 96 1012.2
20260905082101 75 311 0.0 0.0 0.00 0.00 0.00 96 1012.1
20260905082003 75 311 0.0 0.0 0.00 0.00 0.00 96 1012.1
20260905081900 75 311 0.0 0.0 0.00 0.00 0.00 96 1012.1
20260905081801 75 311 0.0 0.0 0.00 0.00 0.00 96 1012.1
20260905081701 75 311 0.0 0.0 0.00 0.00 0.00 96 1012.1
20260905081603 75 311 0.0 0.0 0.00 0.00 0.00 96 1012.1
20260905081501 75 311 0.0 0.0 0.00 0.00 0.00 96 1012.0
20260905081301 75 311 0.0 0.0 0.00 0.00 0.00 96 1012.1
20260905081204 75 311 0.0 0.0 0.00 0.00 0.00 96 1011.9
20260905081101 75 311 0.0 0.0 0.00 0.00 0.00 96 1012.0
20260905081001 75 311 0.0 0.0 0.00 0.00 0.00 96 1012.0
20260905080901 75 311 0.0 0.0 0.00 0.00 0.00 96 1012.0
20260905080701 75 311 0.0 0.0 0.00 0.00 0.00 96 1012.1
20260905080600 75 311 0.0 0.0 0.00 0.00 0.00 96 1012.1
20260905080501 75 311 0.0 0.0 0.00 0.00 0.00 96 1012.0
20260905080402 75 311 0.0 0.0 0.00 0.00 0.00 96 1012.2
20260905080302 75 311 0.0 0.0 0.00 0.00 0.00 96 1012.1
20260905080200 75 311 0.0 0.0 0.00 0.00 0.00 96 1012.1
20260905080101 75 311 0.0 0.0 0.00 0.00 0.00 96 1012.1
20260905075900 75 311 0.0 0.0 0.00 0.00 0.00 96 1012.1
20260905075800 75 311 0.0 0.0 0.00 0.00 0.00 96 1012.1
20260905075700 75 311 0.0 0.0 0.00 0.00 0.00 96 1012.1
20260905075606 75 311 0.0 0.0 0.00 0.00 0.00 96 1012.1
20260905075501 75 311 0.0 0.0 0.00 0.00 0.00 96 1012.1
20260905075401 75 311 0.0 0.0 0.00 0.00 0.00 96 1012.1
20260905075301 75 311 0.0 0.0 0.00 0.00 0.00 96 1012.2
20260905075202 75 311 0.0 0.0 0.00 0.00 0.00 96 1012.2
20260905074901 75 311 0.0 0.0 0.00 0.00 0.00 95 1012.1
20260905074701 75 311 0.0 0.0 0.00 0.00 0.00 95 1012.2
20260905074601 75 311 0.0 0.0 0.00 0.00 0.00 95 1012.2
20260905074501 75 311 0.0 0.0 0.00 0.00 0.00 95 1012.2
20260905074402 75 311 0.0 0.0 0.00 0.00 0.00 95 1012.2
20260905074301 75 311 0.0 0.0 0.00 0.00 0.00 95 1012.1
20260905074201 75 311 0.0 0.0 0.00 0.00 0.00 95 1012.1
20260905074101 75 311 0.0 0.0 0.00 0.00 0.00 95 1012.2
20260905074003 75 311 0.0 0.0 0.00 0.00 0.00 95 1012.1
20260905073900 75 311 0.0 0.0 0.00 0.00 0.00 95 1012.1
20260905073801 75 311 0.0 0.0 0.00 0.00 0.00 95 1012.1
20260905073700 75 311 0.0 0.0 0.00 0.00 0.00 95 1012.1
20260905073603 75 311 0.0 0.0 0.00 0.00 0.00 95 1012.1
20260905073501 75 311 0.0 0.0 0.00 0.00 0.00 95 1012.2
20260905073302 75 311 0.0 0.0 0.00 0.00 0.00 95 1012.1
20260905073203 75 311 0.0 0.0 0.00 0.00 0.00 95 1012.1
20260905073101 75 311 0.0 0.0 0.00 0.00 0.00 95 1012.1
20260905073002 75 311 0.0 0.0 0.00 0.00 0.00 95 1012.1
20260905072804 75 311 0.0 0.0 0.00 0.00 0.00 95 1012.1
20260905072701 75 311 0.0 0.0 0.00 0.00 0.00 95 1012.2
20260905072600 75 311 0.0 0.0 0.00 0.00 0.00 95 1012.2
20260905072501 75 311 0.0 0.0 0.00 0.00 0.00 95 1012.2
20260905072402 75 311 0.0 0.0 0.00 0.00 0.00 95 1012.2
20260905072300 75 311 0.0 0.0 0.00 0.00 0.00 95 1012.2
20260905072101 75 311 0.0 0.0 0.00 0.00 0.00 95 1012.2
20260905071901 75 311 0.0 0.0 0.00 0.00 0.00 95 1012.3
20260905071801 75 311 0.0 0.0 0.00 0.00 0.00 95 1012.3
20260905071604 75 311 0.0 0.0 0.00 0.00 0.00 95 1012.3
20260905071501 75 311 0.0 0.0 0.00 0.00 0.00 95 1012.3
20260905071401 75 311 0.0 0.0 0.00 0.00 0.00 95 1012.3
20260905071301 75 311 0.0 0.0 0.00 0.00 0.00 95 1012.4
20260905071203 75 311 0.0 0.0 0.00 0.00 0.00 95 1012.4
20260905071101 75 311 0.0 0.0 0.00 0.00 0.00 95 1012.4
20260905070700 75 311 0.0 0.0 0.00 0.00 0.00 95 1012.4
20260905070601 75 311 0.0 0.0 0.00 0.00 0.00 95 1012.4
20260905070501 76 311 0.0 0.0 0.00 0.00 0.00 95 1012.4
20260905070404 76 311 0.0 0.0 0.00 0.00 0.00 95 1012.4
20260905070301 76 311 0.0 0.0 0.00 0.00 0.00 95 1012.4
20260905070201 76 311 0.0 0.0 0.00 0.00 0.00 95 1012.4
20260905070101 76 311 0.0 0.0 0.00 0.00 0.00 95 1012.4
20260905070005 76 311 0.0 0.0 0.00 0.00 0.00 95 1012.4
20260905065901 76 311 0.0 0.0 0.00 0.00 0.00 95 1012.4
20260905065801 76 311 0.0 0.0 0.00 0.00 0.00 95 1012.5
20260905065701 76 311 0.0 0.0 0.00 0.00 0.00 95 1012.5
20260905065301 76 311 0.0 0.0 0.00 0.00 0.00 95 1012.5
20260905065101 76 311 0.0 0.0 0.00 0.00 0.00 95 1012.6
20260905064900 76 311 0.0 0.0 0.00 0.00 0.00 95 1012.6
20260905064701 76 311 0.0 0.0 0.00 0.00 0.00 95 1012.6
20260905064601 76 311 0.0 0.0 0.00 0.00 0.00 95 1012.6
20260905064501 76 311 0.0 0.0 0.00 0.00 0.00 95 1012.6
20260905064402 76 311 0.0 0.0 0.00 0.00 0.00 95 1012.6
20260905064201 76 311 0.0 0.0 0.00 0.00 0.00 95 1012.7
20260905064101 76 311 0.0 0.0 0.00 0.00 0.00 95 1012.6
20260905064004 76 311 0.0 0.0 0.00 0.00 0.00 95 1012.7
20260905063901 76 311 0.0 0.0 0.00 0.00 0.00 95 1012.6
20260905063700 76 311 0.0 0.0 0.00 0.00 0.00 95 1012.7
20260905063602 76 311 0.0 0.0 0.00 0.00 0.00 95 1012.6
20260905063501 76 311 0.0 0.0 0.00 0.00 0.00 95 1012.7
20260905063401 76 311 0.0 0.0 0.00 0.00 0.00 95 1012.7
20260905063301 76 311 0.0 0.0 0.00 0.00 0.00 95 1012.7
20260905063203 76 311 0.0 0.0 0.00 0.00 0.00 95 1012.7
20260905063101 76 311 0.0 0.0 0.00 0.00 0.00 95 1012.7
20260905062901 76 311 0.0 0.0 0.00 0.00 0.00 95 1012.7
20260905062701 76 311 0.0 0.0 0.00 0.00 0.00 95 1012.7
20260905062601 76 311 0.0 0.0 0.00 0.00 0.00 95 1012.7
20260905062500 76 311 0.0 0.0 0.00 0.00 0.00 95 1012.6
20260905062301 76 311 0.0 0.0 0.00 0.00 0.00 95 1012.7
20260905062101 76 311 0.0 0.0 0.00 0.00 0.00 95 1012.7
20260905061900 76 311 0.0 0.0 0.00 0.00 0.00 95 1012.7
20260905061801 76 311 0.0 0.0 0.00 0.00 0.00 95 1012.7
20260905061701 76 311 0.0 0.0 0.00 0.00 0.00 95 1012.7
20260905061603 76 311 0.0 0.0 0.00 0.00 0.00 94 1012.7
20260905061501 76 311 0.0 0.0 0.00 0.00 0.00 94 1012.7
20260905061401 76 311 0.0 0.0 0.00 0.00 0.00 94 1012.7
20260905061301 76 311 0.0 0.0 0.00 0.00 0.00 94 1012.7
20260905061203 76 311 0.0 0.0 0.00 0.00 0.00 94 1012.7
20260905061101 76 311 0.0 0.0 0.00 0.00 0.00 94 1012.7
20260905061001 76 311 0.0 0.0 0.00 0.00 0.00 94 1012.7
20260905060901 76 311 0.0 0.0 0.00 0.00 0.00 94 1012.7
20260905060701 76 311 0.0 0.0 0.00 0.00 0.00 95 1012.7
20260905060601 76 311 0.0 0.0 0.00 0.00 0.00 94 1012.7
20260905060501 76 311 0.0 0.0 0.00 0.00 0.00 95 1012.8
20260905060402 76 311 0.0 0.0 0.00 0.00 0.00 95 1012.8
20260905060301 76 311 0.0 0.0 0.00 0.00 0.00 95 1012.8
20260905060201 76 311 0.0 0.0 0.00 0.00 0.00 95 1012.8
20260905060101 76 311 0.0 0.0 0.00 0.00 0.00 94 1012.7
20260905060005 76 311 0.0 0.0 0.00 0.00 0.00 94 1012.7
20260905055900 76 311 0.0 0.0 0.00 0.00 0.00 94 1012.8
20260905055800 76 311 0.0 0.0 0.00 0.00 0.00 94 1012.7
20260905055700 76 311 0.0 0.0 0.00 0.00 0.00 94 1012.7
20260905055604 76 311 0.0 0.0 0.00 0.00 0.00 94 1012.8
20260905055500 76 311 0.0 0.0 0.00 0.00 0.00 94 1012.8
20260905055301 76 311 0.0 0.0 0.00 0.00 0.00 94 1012.8
20260905055202 76 311 0.0 0.0 0.00 0.00 0.00 94 1012.8
20260905055101 76 311 0.0 0.0 0.00 0.00 0.00 94 1012.8
20260905054901 76 311 0.0 0.0 0.00 0.00 0.00 94 1012.8
20260905054803 76 311 0.0 0.0 0.00 0.00 0.00 94 1012.8
20260905054601 76 311 0.0 0.0 0.00 0.00 0.00 94 1012.8
20260905054501 76 311 0.0 0.0 0.00 0.00 0.00 94 1012.9
20260905054202 76 311 0.0 0.0 0.00 0.00 0.00 94 1012.8
20260905054101 76 311 0.0 0.0 0.00 0.00 0.00 94 1012.9
20260905054003 76 311 0.0 0.0 0.00 0.00 0.00 94 1012.8
20260905053901 76 311 0.0 0.0 0.00 0.00 0.00 94 1012.9
20260905053801 76 311 0.0 0.0 0.00 0.00 0.00 94 1012.9
20260905053701 76 311 0.0 0.0 0.00 0.00 0.00 94 1012.8
20260905053602 76 311 0.0 0.0 0.00 0.00 0.00 94 1012.9
20260905053500 76 311 0.0 0.0 0.00 0.00 0.00 94 1012.9
20260905053401 76 311 0.0 0.0 0.00 0.00 0.00 94 1012.9
20260905053301 76 311 0.0 0.0 0.00 0.00 0.00 93 1012.9
20260905053204 76 311 0.0 0.0 0.00 0.00 0.00 93 1012.9
20260905053000 76 311 0.0 0.0 0.00 0.00 0.00 93 1012.9
20260905052802 76 311 0.0 0.0 0.00 0.00 0.00 93 1012.9
20260905052700 76 311 0.0 0.0 0.00 0.00 0.00 93 1013.0
20260905052601 76 311 0.0 0.0 0.00 0.00 0.00 93 1013.0
20260905052501 76 311 0.0 0.0 0.00 0.00 0.00 93 1013.0
20260905052300 76 311 0.0 0.0 0.00 0.00 0.00 93 1013.0
20260905052200 76 311 0.0 0.0 0.00 0.00 0.00 93 1013.1
20260905052100 76 311 0.0 0.0 0.00 0.00 0.00 93 1013.1
20260905052003 76 311 0.0 0.0 0.00 0.00 0.00 93 1013.1
20260905051900 76 311 0.0 0.0 0.00 0.00 0.00 93 1013.1
20260905051801 76 311 0.0 0.0 0.00 0.00 0.00 93 1013.1
20260905051701 76 311 0.0 0.0 0.00 0.00 0.00 93 1013.2
20260905051603 76 311 0.0 0.0 0.00 0.00 0.00 93 1013.1
20260905051502 76 311 0.0 0.0 0.00 0.00 0.00 93 1013.1
20260905051401 77 311 0.0 0.0 0.00 0.00 0.00 93 1013.1
20260905051301 77 311 0.0 0.0 0.00 0.00 0.00 92 1013.1
20260905051204 77 311 0.0 0.0 0.00 0.00 0.00 92 1013.1
20260905051100 77 311 0.0 0.0 0.00 0.00 0.00 92 1013.2
20260905051000 77 311 0.0 0.0 0.00 0.00 0.00 92 1013.1
20260905050900 77 311 0.0 0.0 0.00 0.00 0.00 92 1013.1
20260905050805 77 311 0.0 0.0 0.00 0.00 0.00 92 1013.1
20260905050701 77 311 0.0 0.0 0.00 0.00 0.00 92 1013.2
20260905050600 77 311 0.0 0.0 0.00 0.00 0.00 92 1013.2
20260905050501 77 311 0.0 0.0 0.00 0.00 0.00 92 1013.2
20260905050404 77 311 0.0 0.0 0.00 0.00 0.00 92 1013.2
20260905050301 77 311 0.0 0.0 0.00 0.00 0.00 92 1013.2
20260905050200 77 311 0.0 0.0 0.00 0.00 0.00 92 1013.3
20260905050006 77 311 0.0 0.0 0.00 0.00 0.00 92 1013.2
20260905045901 77 311 0.0 0.0 0.00 0.00 0.00 92 1013.2
20260905045800 77 311 0.0 0.0 0.00 0.00 0.00 92 1013.3
20260905045704 77 311 0.0 0.0 0.00 0.00 0.00 92 1013.2
20260905045501 77 311 0.0 0.0 0.00 0.00 0.00 92 1013.3
20260905045401 77 311 0.0 0.0 0.00 0.00 0.00 92 1013.3
20260905045305 77 311 0.0 0.0 0.00 0.00 0.00 92 1013.2
20260905045200 77 311 0.0 0.0 0.00 0.00 0.00 92 1013.3
20260905045101 77 311 0.0 0.0 0.00 0.00 0.00 92 1013.3
20260905045001 77 311 0.0 0.0 0.00 0.00 0.00 92 1013.3
20260905044801 77 311 0.0 0.0 0.00 0.00 0.00 92 1013.2
20260905044701 77 311 0.0 0.0 0.00 0.00 0.00 92 1013.2
20260905044601 77 311 0.0 0.0 0.00 0.00 0.00 92 1013.3
20260905044503 77 311 0.0 0.0 0.00 0.00 0.00 92 1013.2
20260905044401 77 311 0.0 0.0 0.00 0.00 0.00 91 1013.2
20260905044300 77 311 0.0 0.0 0.00 0.00 0.00 91 1013.3
20260905044200 77 311 0.0 0.0 0.00 0.00 0.00 91 1013.3
20260905044103 77 311 0.0 0.0 0.00 0.00 0.00 91 1013.3
20260905043900 77 311 0.0 0.0 0.00 0.00 0.00 91 1013.3
20260905043801 77 311 0.0 0.0 0.00 0.00 0.00 91 1013.3
20260905043703 77 311 0.0 0.0 0.00 0.00 0.00 91 1013.4
20260905043600 77 311 0.0 0.0 0.00 0.00 0.00 91 1013.3
20260905043501 77 311 0.0 0.0 0.00 0.00 0.00 91 1013.4
20260905043401 77 311 0.0 0.0 0.00 0.00 0.00 91 1013.3
20260905043302 77 311 0.0 0.0 0.00 0.00 0.00 90 1013.3
20260905043201 77 311 0.0 0.0 0.00 0.00 0.00 90 1013.4
20260905043102 77 311 0.0 0.0 0.00 0.00 0.00 90 1013.3
20260905043001 77 311 0.0 0.0 0.00 0.00 0.00 90 1013.4
20260905042903 77 311 0.0 0.0 0.00 0.00 0.00 90 1013.4
20260905042801 77 311 0.0 0.0 0.00 0.00 0.00 90 1013.4
20260905042700 77 311 0.0 0.0 0.00 0.00 0.00 90 1013.4
20260905042502 77 311 0.0 0.0 0.00 0.00 0.00 90 1013.4
20260905042401 77 311 0.0 0.0 0.00 0.00 0.00 90 1013.4
20260905042302 77 311 0.0 0.0 0.00 0.00 0.00 90 1013.3
20260905042201 77 311 0.0 0.0 0.00 0.00 0.00 90 1013.4
20260905042103 77 311 0.0 0.0 0.00 0.00 0.00 90 1013.3
20260905042001 77 311 0.0 0.0 0.00 0.00 0.00 90 1013.3
20260905041900 77 311 0.0 0.0 0.00 0.00 0.00 90 1013.3
20260905041802 77 311 0.0 0.0 0.00 0.00 0.00 90 1013.3
20260905041704 78 311 0.0 0.0 0.00 0.00 0.00 90 1013.3
20260905041601 78 311 0.0 0.0 0.00 0.00 0.00 90 1013.3
20260905041501 78 311 0.0 0.0 0.00 0.00 0.00 90 1013.3
20260905041402 78 311 0.0 0.0 0.00 0.00 0.00 90 1013.3
20260905041301 78 311 0.0 0.0 0.00 0.00 0.00 91 1013.3
20260905041101 78 311 0.0 0.0 0.00 0.00 0.00 91 1013.3
20260905041003 78 311 0.0 0.0 0.00 0.00 0.00 91 1013.2
20260905040901 78 311 0.0 0.0 0.00 0.00 0.00 91 1013.3
20260905040801 78 311 0.0 0.0 0.00 0.00 0.00 91 1013.3
20260905040701 78 311 0.0 0.0 0.00 0.00 0.00 91 1013.3
20260905040604 78 311 0.0 0.0 0.00 0.00 0.00 91 1013.3
20260905040501 78 311 0.0 0.0 0.00 0.00 0.00 91 1013.3
20260905040301 78 311 0.0 0.0 0.00 0.00 0.00 91 1013.3
20260905040203 78 311 0.0 0.0 0.00 0.00 0.00 91 1013.3
20260905040101 78 311 0.0 0.0 0.00 0.00 0.00 91 1013.4
20260905040005 78 311 0.0 0.0 0.00 0.00 0.00 91 1013.4
20260905035903 78 311 0.0 0.0 0.00 0.00 0.00 91 1013.4
20260905035800 78 311 0.0 0.0 0.00 0.00 0.00 91 1013.4
20260905035700 78 311 0.0 0.0 0.00 0.00 0.00 91 1013.3
20260905035600 78 311 0.0 0.0 0.00 0.00 0.00 91 1013.3
20260905035504 78 311 0.0 0.0 0.00 0.00 0.00 91 1013.3
20260905035400 78 311 0.0 0.0 0.00 0.00 0.00 91 1013.3
20260905035300 78 311 0.0 0.0 0.00 0.00 0.00 91 1013.3
20260905035201 78 311 0.0 0.0 0.00 0.00 0.00 91 1013.3
20260905035102 78 311 0.0 0.0 0.00 0.00 0.00 91 1013.3
20260905035001 78 311 0.0 0.0 0.00 0.00 0.00 91 1013.4
20260905034900 78 311 0.0 0.0 0.00 0.00 0.00 91 1013.4
20260905034801 78 311 0.0 0.0 0.00 0.00 0.00 91 1013.4
20260905034703 78 311 0.0 0.0 0.00 0.00 0.00 91 1013.4
20260905034601 78 311 0.0 0.0 0.00 0.00 0.00 91 1013.4
20260905034500 78 311 0.0 0.0 0.00 0.00 0.00 91 1013.4
20260905034400 78 311 0.0 0.0 0.00 0.00 0.00 91 1013.4
20260905034303 78 311 0.0 0.0 0.00 0.00 0.00 91 1013.4
20260905034200 78 311 0.0 0.0 0.00 0.00 0.00 91 1013.3
20260905034100 78 311 0.0 0.0 0.00 0.00 0.00 91 1013.3
20260905034001 78 311 0.0 0.0 0.00 0.00 0.00 92 1013.2
20260905033800 78 311 0.0 0.0 0.00 0.00 0.00 92 1013.3
20260905033701 78 311 0.0 0.0 0.00 0.00 0.00 92 1013.3
20260905033601 78 311 0.0 0.0 0.00 0.00 0.00 92 1013.3
20260905033502 78 311 0.0 0.0 0.00 0.00 0.00 92 1013.3
20260905033301 78 311 0.0 0.0 0.00 0.00 0.00 91 1013.3
20260905033104 78 311 0.0 0.0 0.00 0.00 0.00 91 1013.3
20260905033000 78 311 0.0 0.0 0.00 0.00 0.00 91 1013.3
20260905032859 78 311 0.0 0.0 0.00 0.00 0.00 91 1013.4
20260905032801 78 311 0.0 0.0 0.00 0.00 0.00 91 1013.3
20260905032500 78 311 0.0 0.0 0.00 0.00 0.00 91 1013.4
20260905032401 78 311 0.0 0.0 0.00 0.00 0.00 91 1013.4
20260905032201 78 311 0.0 0.0 0.00 0.00 0.00 91 1013.4
20260905032000 78 311 0.0 0.0 0.00 0.00 0.00 92 1013.5
20260905031904 78 311 0.0 0.0 0.00 0.00 0.00 92 1013.4
20260905031801 78 311 0.0 0.0 0.00 0.00 0.00 92 1013.4
20260905031701 78 311 0.0 0.0 0.00 0.00 0.00 92 1013.5
20260905031601 78 311 0.0 0.0 0.00 0.00 0.00 92 1013.4
20260905031503 78 311 0.0 0.0 0.00 0.00 0.00 92 1013.4
20260905031401 78 311 0.0 0.0 0.00 0.00 0.00 92 1013.4
20260905031301 78 311 0.0 0.0 0.00 0.00 0.00 92 1013.4
20260905031103 79 311 0.0 0.0 0.00 0.00 0.00 92 1013.3
20260905031001 79 311 0.0 0.0 0.00 0.00 0.00 92 1013.4
20260905030802 79 311 0.0 0.0 0.00 0.00 0.00 92 1013.4
20260905030701 79 311 0.0 0.0 0.00 0.00 0.00 92 1013.3
20260905030601 79 311 0.0 0.0 0.00 0.00 0.00 92 1013.4
20260905030501 79 311 0.0 0.0 0.00 0.00 0.00 92 1013.4
20260905030405 79 311 0.0 0.0 0.00 0.00 0.00 92 1013.3
20260905030201 79 311 0.0 0.0 0.00 0.00 0.00 92 1013.4
20260905030101 79 311 0.0 0.0 0.00 0.00 0.00 92 1013.3
20260905030004 79 311 0.0 0.0 0.00 0.00 0.00 92 1013.2
20260905025900 79 311 0.0 0.0 0.00 0.00 0.00 92 1013.2
20260905025800 79 311 0.0 0.0 0.00 0.00 0.00 92 1013.2
20260905025700 79 311 0.0 0.0 0.00 0.00 0.00 92 1013.2
20260905025604 79 311 0.0 0.0 0.00 0.00 0.00 92 1013.2
20260905025501 79 311 0.0 0.0 0.00 0.00 0.00 92 1013.2
20260905025400 79 311 0.0 0.0 0.00 0.00 0.00 92 1013.2
20260905025301 79 311 0.0 0.0 0.00 0.00 0.00 92 1013.2
20260905025204 79 311 0.0 0.0 0.00 0.00 0.00 92 1013.3
20260905025101 79 311 0.0 0.0 0.00 0.00 0.00 92 1013.2
20260905024901 79 311 0.0 0.0 0.00 0.00 0.00 92 1013.3
20260905024803 79 311 0.0 0.0 0.00 0.00 0.00 92 1013.2
20260905024700 79 311 0.0 0.0 0.00 0.00 0.00 92 1013.3
20260905024601 79 311 0.0 0.0 0.00 0.00 0.00 92 1013.3
20260905024500 79 311 0.0 0.0 0.00 0.00 0.00 92 1013.3
20260905024404 79 311 0.0 0.0 0.00 0.00 0.00 92 1013.3
20260905024300 79 311 0.0 0.0 0.00 0.00 0.00 92 1013.3
20260905024101 79 311 0.0 0.0 0.00 0.00 0.00 92 1013.2
20260905023900 79 311 0.0 0.0 0.00 0.00 0.00 92 1013.3
20260905023800 79 311 0.0 0.0 0.00 0.00 0.00 92 1013.2
20260905023700 79 311 0.0 0.0 0.00 0.00 0.00 92 1013.3
20260905023603 79 311 0.0 0.0 0.00 0.00 0.00 91 1013.3
20260905023500 80 311 0.0 0.0 0.00 0.00 0.00 91 1013.3
20260905023401 80 311 0.0 0.0 0.00 0.00 0.00 91 1013.3
20260905023101 80 311 0.0 0.0 0.00 0.00 0.00 91 1013.3
20260905023000 80 311 0.0 0.0 0.00 0.00 0.00 91 1013.2
20260905022900 80 311 0.0 0.0 0.00 0.00 0.00 91 1013.3
20260905022805 80 311 0.0 0.0 0.00 0.00 0.00 91 1013.2
20260905022659 80 311 0.0 0.0 0.00 0.00 0.00 91 1013.2
20260905022601 80 311 0.0 0.0 0.00 0.00 0.00 90 1013.3
20260905022500 80 311 0.0 0.0 0.00 0.00 0.00 90 1013.2
20260905022404 80 311 0.0 0.0 0.00 0.00 0.00 90 1013.3
20260905022300 80 311 0.0 0.0 0.00 0.00 0.00 90 1013.3
20260905022200 80 311 0.0 0.0 0.00 0.00 0.00 90 1013.3
20260905022101 80 311 0.0 0.0 0.00 0.00 0.00 90 1013.2
20260905022003 80 311 0.0 0.0 0.00 0.00 0.00 90 1013.2
20260905021900 80 311 0.0 0.0 0.00 0.00 0.00 90 1013.2
20260905021801 80 311 0.0 0.0 0.00 0.00 0.00 90 1013.2
20260905021701 80 311 0.0 0.0 0.00 0.00 0.00 90 1013.2
20260905021605 80 311 0.0 0.0 0.00 0.00 0.00 90 1013.2
20260905021501 80 311 0.0 0.0 0.00 0.00 0.00 90 1013.2
20260905021400 80 311 0.0 0.0 0.00 0.00 0.00 90 1013.2
20260905021300 80 311 0.0 0.0 0.00 0.00 0.00 90 1013.2
20260905021204 81 311 0.0 0.0 0.00 0.00 0.00 90 1013.2
20260905021101 81 311 0.0 0.0 0.00 0.00 0.00 90 1013.2
20260905021001 81 311 0.0 0.0 0.00 0.00 0.00 90 1013.2
20260905020901 81 311 0.0 0.0 0.00 0.00 0.00 90 1013.3
20260905020804 81 311 0.0 0.0 0.00 0.00 0.00 90 1013.3
20260905020700 81 311 0.0 0.0 0.00 0.00 0.00 90 1013.2
20260905020600 81 311 0.0 0.0 0.00 0.00 0.00 89 1013.4
20260905020500 81 311 0.0 0.0 0.00 0.00 0.00 89 1013.3
20260905020404 81 311 0.0 0.0 0.00 0.00 0.00 89 1013.2
20260905020301 81 311 0.0 0.0 0.00 0.00 0.00 89 1013.2
20260905020201 81 311 0.0 0.0 0.00 0.00 0.00 89 1013.3
20260905015900 81 311 0.0 0.0 0.00 0.00 0.00 89 1013.2
20260905015203 81 311 0.0 0.0 0.00 0.00 0.00 89 1013.2
20260905015100 81 311 0.0 0.0 0.00 0.00 0.00 88 1013.2
20260905015001 81 311 0.0 0.0 0.00 0.00 0.00 88 1013.2
20260905014803 81 311 0.0 0.0 0.00 0.00 0.00 87 1013.1
20260905014700 81 311 0.0 0.0 0.00 0.00 0.00 87 1013.1
20260905014600 81 311 0.0 0.0 0.00 0.00 0.00 88 1013.1
20260905014500 81 311 0.0 0.0 0.00 0.00 0.00 88 1013.1
20260905014301 81 311 0.0 0.0 0.00 0.00 0.00 88 1013.1
20260905014201 81 311 0.0 0.0 0.00 0.00 0.00 88 1013.1
20260905014100 81 311 0.0 0.0 0.00 0.00 0.00 88 1013.1
20260905014003 81 311 0.0 0.0 0.00 0.00 0.00 88 1013.0
20260905013901 81 311 0.0 0.0 0.00 0.00 0.00 88 1013.0
20260905013800 81 311 0.0 0.0 0.00 0.00 0.00 88 1012.9
20260905013701 81 311 0.0 0.0 0.00 0.00 0.00 88 1013.0
20260905013601 81 311 0.0 0.0 0.00 0.00 0.00 88 1013.0
20260905013501 81 311 0.0 0.0 0.00 0.00 0.00 87 1013.0
20260905013300 82 311 0.0 0.0 0.00 0.00 0.00 87 1012.9
20260905013203 82 311 0.0 0.0 0.00 0.00 0.00 87 1012.9
20260905013000 82 311 0.0 0.0 0.00 0.00 0.00 87 1012.9
20260905012901 82 311 0.0 0.0 0.00 0.00 0.00 87 1012.9
20260905012802 82 311 0.0 0.0 0.00 0.00 0.00 87 1012.9
20260905012700 82 311 0.0 0.0 0.00 0.00 0.00 87 1012.8
20260905012405 82 311 0.0 0.0 0.00 0.00 0.00 86 1012.8
20260905012300 82 311 0.0 0.0 0.00 0.00 0.00 86 1012.8
20260905012200 82 311 0.0 0.0 0.00 0.00 0.00 86 1012.8
20260905012100 82 311 0.0 0.0 0.00 0.00 0.00 86 1012.8
20260905012002 82 311 0.0 0.0 0.00 0.00 0.00 86 1012.8
20260905011901 82 311 0.0 0.0 0.00 0.00 0.00 86 1012.9
20260905011800 82 311 0.0 0.0 0.00 0.00 0.00 86 1012.9
20260905011701 83 311 0.0 0.0 0.00 0.00 0.00 86 1012.9
20260905011604 83 311 0.0 0.0 0.00 0.00 0.00 85 1012.8
20260905011501 83 311 0.0 0.0 0.00 0.00 0.00 85 1012.8
20260905011400 83 311 0.0 0.0 0.00 0.00 0.00 85 1012.8
20260905011301 83 311 0.0 0.0 0.00 0.00 0.00 85 1012.8
20260905011203 83 311 0.0 0.0 0.00 0.00 0.00 85 1012.8
20260905011100 83 311 0.0 0.0 0.00 0.00 0.00 85 1012.8
20260905011001 83 311 0.0 0.0 0.00 0.00 0.00 84 1012.8
20260905010900 83 311 0.0 0.0 0.00 0.00 0.00 84 1012.8
20260905010803 83 311 0.0 0.0 0.00 0.00 0.00 84 1012.7
20260905010700 83 311 0.0 0.0 0.00 0.00 0.00 84 1012.7
20260905010601 83 311 0.0 0.0 0.00 0.00 0.00 84 1012.7
20260905010501 83 311 0.0 0.0 0.00 0.00 0.00 83 1012.7
20260905010404 83 311 0.0 0.0 0.00 0.00 0.00 83 1012.7
20260905010301 83 311 0.0 0.0 0.00 0.00 0.00 83 1012.7
20260905010200 83 311 0.0 0.0 0.00 0.00 0.00 83 1012.7
20260905010006 83 311 0.0 0.0 0.00 0.00 0.00 82 1012.7
20260905005900 83 311 0.0 0.0 0.00 0.00 0.00 82 1012.7
20260905005800 83 311 0.0 0.0 0.00 0.00 0.00 82 1012.7
20260905005703 84 311 0.0 0.0 0.00 0.00 0.00 82 1012.7
20260905005601 84 311 0.0 0.0 0.00 0.00 0.00 82 1012.7
20260905005501 84 311 0.0 0.0 0.00 0.00 0.00 82 1012.6
20260905005400 84 311 0.0 0.0 0.00 0.00 0.00 82 1012.6
20260905005306 84 311 0.0 0.0 0.00 0.00 0.00 82 1012.6
20260905005200 84 311 0.0 0.0 0.00 0.00 0.00 82 1012.6
20260905005059 84 311 0.0 0.0 0.00 0.00 0.00 82 1012.6
20260905005000 84 311 0.0 0.0 0.00 0.00 0.00 82 1012.6
20260905004903 84 311 0.0 0.0 0.00 0.00 0.00 82 1012.6
20260905004759 84 311 0.0 0.0 0.00 0.00 0.00 82 1012.6
20260905004700 84 311 0.0 0.0 0.00 0.00 0.00 82 1012.6
20260905004601 84 311 0.0 0.0 0.00 0.00 0.00 82 1012.6
20260905004502 84 311 0.0 0.0 0.00 0.00 0.00 82 1012.6
20260905004359 85 311 0.0 0.0 0.00 0.00 0.00 82 1012.6
20260905004259 85 311 0.0 0.0 0.00 0.00 0.00 82 1012.6
20260905004201 85 311 0.0 0.0 0.00 0.00 0.00 82 1012.6
20260905004103 85 311 0.0 0.0 0.00 0.00 0.00 82 1012.5
20260905004000 85 311 0.0 0.0 0.00 0.00 0.00 82 1012.6
20260905003900 85 311 0.0 0.0 0.00 0.00 0.00 82 1012.5
20260905003800 85 311 0.0 0.0 0.00 0.00 0.00 82 1012.5
20260905003703 85 311 0.0 0.0 0.00 0.00 0.00 81 1012.5
20260905003600 85 311 0.0 0.0 0.00 0.00 0.00 81 1012.4
20260905003501 85 311 0.0 0.0 0.00 0.00 0.00 81 1012.5
20260905003400 85 311 0.0 0.0 0.00 0.00 0.00 80 1012.5
20260905003201 85 311 0.0 0.0 0.00 0.00 0.00 80 1012.4
20260905003101 85 311 0.0 0.0 0.00 0.00 0.00 80 1012.5
20260905002906 86 311 0.0 0.0 0.00 0.00 0.00 81 1012.5
20260905002801 86 311 0.0 0.0 0.00 0.00 0.00 81 1012.4
20260905002700 86 311 0.0 0.0 0.00 0.00 0.00 81 1012.5
20260905002600 86 311 0.0 0.0 0.00 0.00 0.00 81 1012.4
20260905002506 86 311 0.0 0.0 0.00 0.00 0.00 81 1012.4
20260905002300 86 311 0.0 0.0 0.00 0.00 0.00 81 1012.4
20260905002201 86 311 0.0 0.0 0.00 0.00 0.00 81 1012.4
20260905002101 86 311 0.0 0.0 0.00 0.00 0.00 81 1012.5
20260905002000 86 311 0.0 0.0 0.00 0.00 0.00 80 1012.5
20260905001900 86 311 0.0 0.0 0.00 0.00 0.00 80 1012.5
20260905001800 86 311 0.0 0.0 0.00 0.00 0.00 80 1012.4
20260905001703 87 311 0.0 0.0 0.00 0.00 0.00 80 1012.4
20260905001601 87 311 0.0 0.0 0.00 0.00 0.00 79 1012.3
20260905001500 87 311 0.0 0.0 0.00 0.00 0.00 78 1012.4
20260905001401 87 311 0.0 0.0 0.00 0.00 0.00 78 1012.4
20260905001304 87 311 0.0 0.0 0.00 0.00 0.00 78 1012.4
20260905001002 87 311 0.0 0.0 0.00 0.00 0.00 78 1012.4
20260905000800 87 311 0.0 0.0 0.00 0.00 0.00 78 1012.4
20260905000700 87 311 0.0 0.0 0.00 0.00 0.00 78 1012.4
20260905000503 87 311 0.0 0.0 0.00 0.00 0.00 78 1012.4
20260905000200 87 311 0.0 0.0 0.00 0.00 0.00 78 1012.5
20260905000003 87 262 0.0 0.0 0.00 0.00 0.00 76 1012.4
20260904235900 88 141 0.0 0.0 0.00 0.00 0.00 76 1012.4
20260904235802 88 188 0.0 0.0 0.00 0.00 0.00 75 1012.4
20260904235700 88 188 0.0 0.0 0.00 0.00 0.00 75 1012.4
20260904235600 88 188 0.0 0.0 0.00 0.00 0.00 75 1012.4
20260904235501 88 188 0.0 0.0 0.00 0.00 0.00 74 1012.4
20260904235403 88 188 0.0 0.0 0.00 0.00 0.00 74 1012.3
20260904235300 88 188 0.0 0.0 0.00 0.00 0.00 74 1012.3
20260904235200 88 188 0.0 0.0 0.00 0.00 0.00 74 1012.3
20260904234859 88 188 0.0 0.0 0.00 0.00 0.00 74 1012.3
20260904234800 88 188 0.0 0.0 0.00 0.00 0.00 73 1012.3
20260904234701 88 188 0.0 0.0 0.00 0.00 0.00 73 1012.3
20260904234602 88 188 0.0 0.0 0.00 0.00 0.00 73 1012.3
20260904234401 88 188 0.0 0.0 0.00 0.00 0.00 72 1012.4
20260904234203 88 188 0.0 0.0 0.00 0.00 0.00 72 1012.4
20260904234100 88 188 0.0 0.0 0.00 0.00 0.00 72 1012.4
20260904233900 88 188 0.0 0.0 0.00 0.00 0.00 71 1012.4
20260904233802 88 188 0.0 0.0 0.00 0.00 0.00 71 1012.4
20260904233701 88 188 0.0 0.0 0.00 0.00 0.00 71 1012.4
20260904233600 89 188 0.0 0.0 0.00 0.00 0.00 71 1012.4
20260904233403 89 188 0.0 0.0 0.00 0.00 0.00 70 1012.4
20260904233300 89 188 0.0 0.0 0.00 0.00 0.00 70 1012.4
20260904233200 89 188 0.0 0.0 0.00 0.00 0.00 70 1012.3
20260904233101 89 188 0.0 0.0 0.00 0.00 0.00 70 1012.4
20260904233003 89 188 0.0 0.0 0.00 0.00 0.00 70 1012.3
20260904232900 89 188 0.0 0.0 0.00 0.00 0.00 70 1012.4
20260904232800 89 188 0.0 0.0 0.00 0.00 0.00 70 1012.4
20260904232700 89 188 0.0 0.0 0.00 0.00 0.00 70 1012.4
20260904232603 89 188 0.0 0.0 0.00 0.00 0.00 70 1012.4
20260904232401 89 188 0.0 0.0 0.00 0.00 0.00 70 1012.4
20260904232300 89 188 0.0 0.0 0.00 0.00 0.00 70 1012.4
20260904232203 89 188 0.0 0.0 0.00 0.00 0.00 69 1012.4
20260904232101 89 188 0.0 0.0 0.00 0.00 0.00 69 1012.3
20260904231701 89 188 0.0 0.0 0.00 0.00 0.00 68 1012.3
20260904231601 89 188 0.0 0.0 0.00 0.00 0.00 68 1012.3
20260904231501 89 188 0.0 0.0 0.00 0.00 0.00 69 1012.4
20260904231403 89 188 0.0 0.0 0.00 0.00 0.00 69 1012.3
20260904231301 90 188 0.0 0.0 0.00 0.00 0.00 69 1012.4
20260904231200 90 188 0.0 0.0 0.00 0.00 0.00 69 1012.3
20260904231101 90 188 0.0 0.0 0.00 0.00 0.00 69 1012.3
20260904231003 90 188 0.0 0.0 0.00 0.00 0.00 69 1012.3
20260904230900 90 188 0.0 0.0 0.00 0.00 0.00 69 1012.4
20260904230700 90 188 0.0 0.0 0.00 0.00 0.00 68 1012.4
20260904230603 90 188 0.0 0.0 0.00 0.00 0.00 68 1012.4
20260904230500 90 188 0.0 0.0 0.00 0.00 0.00 68 1012.3
20260904230400 90 188 0.0 0.0 0.00 0.00 0.00 68 1012.4
20260904230300 90 188 0.0 0.0 0.00 0.00 0.00 68 1012.4
20260904230201 90 188 0.0 0.0 0.00 0.00 0.00 68 1012.4
20260904230101 90 188 0.0 0.0 0.00 0.00 0.00 68 1012.4
20260904230003 90 188 0.0 0.0 0.00 0.00 0.00 68 1012.4
20260904225900 90 188 0.0 0.0 0.00 0.00 0.00 68 1012.4
20260904225501 91 188 0.0 0.0 0.00 0.00 0.00 68 1012.4
20260904225401 91 188 0.0 0.0 0.00 0.00 0.00 68 1012.5
20260904225301 91 188 0.0 0.0 0.00 0.00 0.00 68 1012.4
20260904225200 91 188 0.0 0.0 0.00 0.00 0.00 68 1012.4
20260904225103 91 188 0.0 0.0 0.00 0.00 0.00 68 1012.5
20260904225000 91 188 0.0 0.0 0.00 0.00 0.00 68 1012.5
20260904224800 91 188 0.0 0.0 0.00 0.00 0.00 67 1012.5
20260904224703 91 188 0.0 0.0 0.00 0.00 0.00 67 1012.4
20260904224601 91 188 0.0 0.0 0.00 0.00 0.00 67 1012.5
20260904224500 91 188 0.0 0.0 0.00 0.00 0.00 68 1012.5
20260904224401 92 188 0.0 0.0 0.00 0.00 0.00 68 1012.5
20260904224304 92 188 0.0 0.0 0.00 0.00 0.00 67 1012.6
20260904224201 92 188 0.0 0.0 0.00 0.00 0.00 67 1012.6
20260904224100 92 188 0.0 0.0 0.00 0.00 0.00 67 1012.6
20260904223900 92 188 0.0 0.0 0.00 0.00 0.00 66 1012.6
20260904223759 92 188 0.0 0.0 0.00 0.00 0.00 66 1012.5
20260904223700 92 188 0.0 0.0 0.00 0.00 0.00 66 1012.5
20260904223603 92 188 0.0 0.0 0.00 0.00 0.00 66 1012.6
20260904223500 92 188 0.0 0.0 0.00 0.00 0.00 66 1012.6
20260904223300 93 188 0.0 0.0 0.00 0.00 0.00 66 1012.5
20260904223100 93 188 0.0 0.0 0.00 0.00 0.00 66 1012.5
20260904223000 93 188 0.0 0.0 0.00 0.00 0.00 66 1012.5
20260904222900 93 188 0.0 0.0 0.00 0.00 0.00 65 1012.5
20260904222802 93 188 0.0 0.0 0.00 0.00 0.00 65 1012.5
20260904222701 93 188 0.0 0.0 0.00 0.00 0.00 65 1012.6
20260904222600 93 188 0.0 0.0 0.00 0.00 0.00 64 1012.5
20260904222500 93 188 0.0 0.0 0.00 0.00 0.00 64 1012.6
20260904222402 94 188 0.0 0.0 0.00 0.00 0.00 64 1012.6
20260904222259 94 188 0.0 0.0 0.00 0.00 0.00 64 1012.6
20260904222200 94 188 0.0 0.0 0.00 0.00 0.00 64 1012.6
20260904222100 94 188 0.0 0.0 0.00 0.00 0.00 64 1012.6
20260904222002 94 188 0.0 0.0 0.00 0.00 0.00 64 1012.6
20260904221900 94 188 0.0 0.0 0.00 0.00 0.00 64 1012.6
20260904221759 94 188 0.0 0.0 0.00 0.00 0.00 64 1012.6
20260904221700 94 188 0.0 0.0 0.00 0.00 0.00 64 1012.6
20260904221603 94 188 0.0 0.0 0.00 0.00 0.00 64 1012.6
20260904221500 94 188 0.0 0.0 0.00 0.00 0.00 63 1012.5
20260904221400 94 188 0.0 0.0 0.00 0.00 0.00 63 1012.5
20260904221301 94 188 0.0 0.0 0.00 0.00 0.00 63 1012.5
20260904221204 94 188 0.0 0.0 0.00 0.00 0.00 63 1012.6
20260904221101 94 188 0.0 0.0 0.00 0.00 0.00 63 1012.6
20260904220959 94 188 0.0 0.0 0.00 0.00 0.00 62 1012.5
20260904220900 94 188 0.0 0.0 0.00 0.00 0.00 63 1012.5
20260904220803 94 188 0.0 0.0 0.00 0.00 0.00 62 1012.5
20260904220701 94 188 0.0 0.0 0.00 0.00 0.00 63 1012.5
20260904220402 95 188 0.0 0.0 0.00 0.00 0.00 62 1012.5
20260904220301 95 188 0.0 0.0 0.00 0.00 0.00 62 1012.4
20260904220200 95 188 0.0 0.0 0.00 0.00 0.00 62 1012.5
20260904220100 95 188 0.0 0.0 0.00 0.00 0.00 62 1012.5
20260904220005 95 188 0.0 0.0 0.00 0.00 0.00 62 1012.5
20260904215901 95 188 0.0 0.0 0.00 0.00 0.00 62 1012.5
20260904215800 95 188 0.0 0.0 0.00 0.00 0.00 62 1012.6
20260904215701 95 188 0.0 0.0 0.00 0.00 0.00 62 1012.5
20260904215604 95 188 0.0 0.0 0.00 0.00 0.00 62 1012.6
20260904215500 95 188 0.0 0.0 0.00 0.00 0.00 62 1012.6
20260904215401 95 188 0.0 0.0 0.00 0.00 0.00 61 1012.6
20260904215300 95 188 0.0 0.0 0.00 0.00 0.00 61 1012.6
20260904215202 95 188 0.0 0.0 0.00 0.00 0.00 61 1012.5
20260904215000 95 188 0.0 0.0 0.00 0.00 0.00 61 1012.7
20260904214900 95 188 0.0 0.0 0.00 0.00 0.00 60 1012.6
20260904214700 95 188 0.0 0.0 0.00 0.00 0.00 60 1012.6
20260904214601 95 188 0.0 0.0 0.00 0.00 0.00 59 1012.6
20260904214500 95 188 0.0 0.0 0.00 0.00 0.00 59 1012.6
20260904214403 96 188 0.0 0.0 0.00 0.00 0.00 59 1012.6
20260904214300 96 188 0.0 0.0 0.00 0.00 0.00 59 1012.6
20260904214200 96 188 0.0 0.0 0.00 0.00 0.00 59 1012.7
20260904214100 96 188 0.0 0.0 0.00 0.00 0.00 59 1012.6
20260904214003 96 188 0.0 0.0 0.00 0.00 0.00 58 1012.7
20260904213900 96 188 0.0 0.0 0.00 0.00 0.00 59 1012.7
20260904213759 96 188 0.0 0.0 0.00 0.00 0.00 59 1012.7
20260904213602 96 188 0.0 0.0 0.00 0.00 0.00 60 1012.8
20260904213500 96 188 0.0 0.0 0.00 0.00 0.00 60 1012.8
20260904213401 96 188 0.0 0.0 0.00 0.00 0.00 59 1012.8
20260904213300 96 188 0.0 0.0 0.00 0.00 0.00 59 1012.9
20260904213203 96 188 0.0 0.0 0.00 0.00 0.00 59 1012.8
20260904213101 96 188 0.0 0.0 0.00 0.00 0.00 59 1012.8
20260904213000 96 188 0.0 0.0 0.00 0.00 0.00 59 1012.8
20260904212900 96 188 0.0 0.0 0.00 0.00 0.00 59 1012.8
20260904212802 96 188 0.0 0.0 0.00 0.00 0.00 58 1012.7
20260904212700 96 188 0.0 0.0 0.00 0.00 0.00 58 1012.8
20260904212600 96 188 0.0 0.0 0.00 0.00 0.00 57 1012.8
20260904212500 96 188 0.0 0.0 0.00 0.00 0.00 59 1012.8
20260904212300 96 188 0.0 0.0 0.00 0.00 0.00 59 1012.9
20260904212201 97 188 0.0 0.0 0.00 0.00 0.00 59 1012.9
20260904212100 97 188 0.0 0.0 0.00 0.00 0.00 58 1012.9
20260904212002 97 188 0.0 0.0 0.00 0.00 0.00 58 1012.8
20260904211901 97 188 0.0 0.0 0.00 0.00 0.00 58 1013.0
20260904211800 97 188 0.0 0.0 0.00 0.00 0.00 58 1013.0
20260904211700 96 188 0.0 0.0 0.00 0.00 0.00 59 1012.8
20260904211603 96 188 0.0 0.0 0.00 0.00 0.00 60 1013.1
20260904211500 96 188 0.0 0.0 0.00 0.00 0.00 61 1012.9
20260904211300 96 188 0.0 0.0 0.00 0.00 0.00 59 1012.9
20260904211202 96 188 0.0 0.0 0.00 0.00 0.00 59 1012.9
20260904211100 96 188 0.0 0.0 0.00 0.00 0.00 59 1012.9
20260904210859 96 188 0.0 0.0 0.00 0.00 0.00 61 1013.0
20260904210802 96 188 0.0 0.0 0.00 0.00 0.00 60 1012.9
20260904210600 96 188 0.0 0.0 0.00 0.00 0.00 61 1013.2
20260904210501 96 188 0.0 0.0 0.00 0.00 0.00 60 1013.1
20260904210403 96 188 0.0 0.0 0.00 0.00 0.00 60 1013.2
20260904210259 96 188 0.0 0.0 0.00 0.00 0.00 60 1013.2
20260904210201 95 188 0.0 0.0 0.00 0.00 0.00 60 1013.2
20260904210100 95 188 0.0 0.0 0.00 0.00 0.00 60 1013.2
20260904210004 95 188 0.0 0.0 0.00 0.00 0.00 59 1013.2
20260904205900 95 188 0.0 0.0 0.00 0.00 0.00 59 1013.2
20260904205800 95 188 0.0 0.0 0.00 0.00 0.00 59 1013.2
20260904205600 95 188 0.0 0.0 0.00 0.00 0.00 60 1013.2
20260904205500 95 187 0.0 0.0 0.00 0.00 0.00 60 1013.2
20260904205400 95 187 0.0 0.0 0.00 0.00 0.00 60 1013.2
20260904205305 95 187 0.0 0.0 0.00 0.00 0.00 59 1013.2
20260904205200 95 187 0.0 0.0 0.00 0.00 0.00 59 1013.2
20260904205059 95 188 0.0 0.0 0.00 0.00 0.00 60 1013.2
20260904205000 95 188 0.0 0.0 0.00 0.00 0.00 60 1013.1
20260904204902 95 187 0.0 0.0 0.00 0.00 0.00 59 1013.2
20260904204801 96 187 0.0 0.0 0.00 0.00 0.00 60 1013.2
20260904204700 96 187 0.0 0.0 0.00 0.00 0.00 59 1013.2
20260904204601 96 187 0.0 0.0 0.00 0.00 0.00 60 1013.2
20260904204503 96 187 0.0 0.0 0.00 0.00 0.00 60 1013.2
20260904204401 96 187 0.0 0.0 0.00 0.00 0.00 60 1013.2
20260904204300 96 187 0.0 0.0 0.00 0.00 0.00 59 1013.3
20260904204159 96 188 0.0 0.0 0.00 0.00 0.00 60 1013.2
20260904204102 96 188 0.0 0.0 0.00 0.00 0.00 60 1013.3
20260904203900 96 188 0.0 0.0 0.00 0.00 0.00 60 1013.3
20260904203800 96 188 0.0 0.0 0.00 0.00 0.00 60 1013.3
20260904203702 96 188 0.0 0.0 0.00 0.00 0.00 59 1013.3
20260904203500 97 186 0.0 0.0 0.00 0.00 0.00 59 1013.4
20260904203400 97 186 0.0 0.0 0.00 0.00 0.00 59 1013.4
20260904203303 97 186 0.0 0.0 0.00 0.00 0.00 59 1013.4
20260904203200 97 186 0.0 0.0 0.00 0.00 0.00 61 1013.4
20260904203100 97 186 0.0 0.0 0.00 0.00 0.00 60 1013.4
20260904202959 97 186 0.0 0.0 0.00 0.00 0.00 58 1013.5
20260904202902 97 186 0.0 0.0 0.00 0.00 0.00 57 1013.4
20260904202800 97 184 0.0 0.0 0.00 0.00 0.00 57 1013.5
20260904202700 97 184 0.0 0.0 0.00 0.00 0.00 57 1013.4
20260904202600 97 184 0.0 0.0 0.00 0.00 0.00 57 1013.5
20260904202503 97 184 0.0 0.0 0.00 0.00 0.00 58 1013.5
20260904202400 97 184 0.0 0.0 0.00 0.00 0.00 56 1013.5
20260904202301 97 184 0.0 0.0 0.00 0.00 0.00 56 1013.5
20260904202200 97 184 0.0 0.0 0.00 0.00 0.00 56 1013.5
20260904202002 97 184 0.0 0.0 0.00 0.00 0.00 56 1013.5
20260904201859 97 184 0.0 0.0 0.00 0.00 0.00 56 1013.5
20260904201800 97 184 0.0 0.0 0.00 0.00 0.00 55 1013.6
20260904201703 97 184 0.0 0.0 0.00 0.00 0.00 55 1013.6
20260904201601 97 184 0.0 0.0 0.00 0.00 0.00 54 1013.6
20260904201500 97 253 0.0 0.0 0.00 0.00 0.00 54 1013.6
20260904201400 97 254 0.0 0.0 0.00 0.00 0.00 56 1013.6
20260904201304 97 254 0.0 0.0 0.00 0.00 0.00 56 1013.6
20260904201200 97 254 0.0 0.0 0.00 0.00 0.00 58 1013.6
20260904201100 97 254 0.0 0.0 0.00 0.00 0.00 59 1013.6
20260904201000 97 254 0.0 0.0 0.00 0.00 0.00 57 1013.6
20260904200903 97 253 0.0 0.0 0.00 0.00 0.00 57 1013.6
20260904200800 97 253 0.0 0.0 0.00 0.00 0.00 57 1013.6
20260904200702 97 253 0.0 0.0 0.00 0.00 0.00 58 1013.6
20260904200600 97 253 0.0 0.0 0.00 0.00 0.00 59 1013.7
20260904200502 97 253 0.0 0.0 0.00 0.00 0.00 60 1013.7
20260904200400 97 254 0.0 0.0 0.00 0.00 0.00 61 1013.7
20260904200300 97 254 0.0 0.0 0.00 0.00 0.00 60 1013.7
20260904200200 97 254 0.0 0.0 0.00 0.00 0.00 59 1013.7
20260904200002 97 301 0.0 0.0 0.00 0.00 0.00 61 1013.7
20260904195900 96 301 0.0 2.0 0.00 0.00 0.00 59 1013.7
20260904195801 96 301 0.0 2.0 0.00 0.00 0.00 58 1013.8
20260904195700 96 301 0.0 2.0 0.00 0.00 0.00 58 1013.7
20260904195600 96 301 0.0 2.0 0.00 0.00 0.00 59 1013.8
20260904195500 96 301 0.0 2.0 0.00 0.00 0.00 58 1013.8
20260904195402 96 319 0.0 2.0 0.00 0.00 0.00 58 1013.8
20260904195201 96 246 0.0 2.0 0.00 0.00 0.00 58 1013.9
20260904195100 96 266 0.0 0.0 0.00 0.00 0.00 58 1013.9
20260904195002 96 266 0.0 0.0 0.00 0.00 0.00 58 1013.9
20260904194900 96 266 0.0 0.0 0.00 0.00 0.00 59 1013.9
20260904194604 95 266 0.0 0.0 0.00 0.00 0.00 61 1014.0
20260904194500 95 266 0.0 0.0 0.00 0.00 0.00 63 1014.0
20260904194300 95 266 0.0 0.0 0.00 0.00 0.00 58 1014.0
20260904194203 95 265 0.0 0.0 0.00 0.00 0.00 57 1014.1
20260904194100 95 265 0.0 0.0 0.00 0.00 0.00 59 1014.1
20260904193802 95 236 0.0 0.0 0.00 0.00 0.00 60 1014.2
20260904193700 95 236 0.0 0.0 0.00 0.00 0.00 59 1014.2
20260904193600 95 236 0.0 5.0 0.00 0.00 0.00 59 1014.2
20260904193501 95 236 0.0 5.0 0.00 0.00 0.00 60 1014.2
20260904193100 95 236 0.0 5.0 0.00 0.00 0.00 61 1014.3
20260904193002 95 236 0.0 5.0 0.00 0.00 0.00 62 1014.3
20260904192900 95 236 0.0 5.0 0.00 0.00 0.00 60 1014.3
20260904192800 95 236 0.0 5.0 0.00 0.00 0.00 60 1014.4
20260904192700 95 268 0.0 3.0 0.00 0.00 0.00 60 1014.4
20260904192602 95 224 0.0 2.0 0.00 0.00 0.00 64 1014.5
20260904192401 94 259 0.0 0.0 0.00 0.00 0.00 63 1014.5
20260904192204 94 251 0.0 0.0 0.00 0.00 0.00 62 1014.6
20260904192059 94 251 0.0 1.0 0.00 0.00 0.00 63 1014.5
20260904192000 94 251 0.0 1.0 0.00 0.00 0.00 61 1014.5
20260904191900 94 252 0.0 1.0 0.00 0.00 0.00 62 1014.6
20260904191802 94 249 0.0 1.0 0.00 0.00 0.00 62 1014.5
20260904191702 94 249 0.0 4.0 0.00 0.00 0.00 62 1014.6
20260904191500 94 249 0.0 4.0 0.00 0.00 0.00 61 1014.5
20260904191404 94 278 0.0 4.0 0.00 0.00 0.00 61 1014.6
20260904191300 94 278 0.0 4.0 0.00 0.00 0.00 63 1014.7
20260904191200 94 242 0.0 4.0 0.00 0.00 0.00 61 1014.7
20260904191059 94 242 0.0 4.0 0.00 0.00 0.00 63 1014.7
20260904191002 94 242 0.0 4.0 0.00 0.00 0.00 63 1014.7
20260904190900 94 242 0.0 4.0 0.00 0.00 0.00 59 1014.7
20260904190759 94 239 0.0 0.0 0.00 0.00 0.00 60 1014.7
20260904190700 94 240 0.0 0.0 0.00 0.00 0.00 61 1014.8
20260904190602 94 240 0.0 0.0 0.00 0.00 0.00 63 1014.8
20260904190502 94 240 0.0 0.0 0.00 0.00 0.00 64 1014.8
20260904190400 94 240 0.0 0.0 0.00 0.00 0.00 64 1014.8
20260904190300 94 240 0.0 0.0 0.00 0.00 0.00 64 1014.7
20260904190205 94 240 0.0 0.0 0.00 0.00 0.00 63 1014.8
20260904190100 94 240 0.0 0.0 0.00 0.00 0.00 63 1014.7
20260904190003 94 240 0.0 0.0 0.00 0.00 0.00 64 1014.8
20260904185902 94 240 0.0 0.0 0.00 0.00 0.00 63 1014.8
20260904185800 94 240 0.0 0.0 0.00 0.00 0.00 63 1014.8
20260904185700 94 240 0.0 0.0 0.00 0.00 0.00 63 1014.8
20260904185600 94 240 0.0 0.0 0.00 0.00 0.00 63 1014.8
20260904185503 94 240 0.0 0.0 0.00 0.00 0.00 62 1014.8
20260904185400 94 240 0.0 0.0 0.00 0.00 0.00 62 1014.9
20260904185300 94 240 0.0 0.0 0.00 0.00 0.00 62 1014.8
20260904185200 94 240 0.0 0.0 0.00 0.00 0.00 62 1014.8
20260904185000 94 240 0.0 0.0 0.00 0.00 0.00 60 1014.8
20260904184800 94 240 0.0 4.0 0.00 0.00 0.00 59 1014.9
20260904184702 94 239 0.0 4.0 0.00 0.00 0.00 59 1014.9
20260904184601 94 238 0.0 4.0 0.00 0.00 0.00 60 1014.8
20260904184500 94 251 0.0 4.0 0.00 0.00 0.00 60 1014.8
20260904184401 94 251 0.0 4.0 0.00 0.00 0.00 60 1014.9
20260904184302 94 251 0.0 4.0 0.00 0.00 0.00 61 1014.8
20260904184100 94 238 0.0 4.0 0.00 0.00 0.00 61 1014.9
20260904183903 95 257 0.0 3.0 0.00 0.00 0.00 62 1014.9
20260904183800 95 257 0.0 4.0 0.00 0.00 0.00 64 1015.0
20260904183700 95 257 0.0 4.0 0.00 0.00 0.00 64 1014.9
20260904183603 95 256 0.0 4.0 0.00 0.00 0.00 64 1015.0
20260904183500 95 259 0.0 4.0 0.00 0.00 0.00 62 1015.0
20260904183400 95 259 0.0 4.0 0.00 0.00 0.00 62 1014.9
20260904183300 95 256 0.0 4.0 0.00 0.00 0.00 60 1015.0
20260904183202 95 247 0.0 4.0 0.00 0.00 0.00 59 1014.9
20260904183101 95 246 0.0 4.0 0.00 0.00 0.00 59 1015.0
20260904183000 95 246 0.0 4.0 0.00 0.00 0.00 60 1015.0
20260904182901 95 251 0.0 4.0 0.00 0.00 0.00 62 1015.0
20260904182803 95 286 0.0 0.0 0.00 0.00 0.00 62 1015.1
20260904182700 95 286 0.0 0.0 0.00 0.00 0.00 63 1015.1
20260904182601 95 261 0.0 0.0 0.00 0.00 0.00 62 1015.1
20260904182500 95 261 0.0 0.0 0.00 0.00 0.00 64 1015.1
20260904182402 95 261 0.0 0.0 0.00 0.00 0.00 63 1015.2
20260904182300 95 261 0.0 1.0 0.00 0.00 0.00 64 1015.2
20260904182200 95 260 0.0 1.0 0.00 0.00 0.00 66 1015.1
20260904182100 95 259 0.0 1.0 0.00 0.00 0.00 64 1015.1
20260904182002 95 259 0.0 1.0 0.00 0.00 0.00 63 1015.2
20260904181900 95 259 0.0 1.0 0.00 0.00 0.00 63 1015.2
20260904181800 95 259 0.0 1.0 0.00 0.00 0.00 62 1015.2
20260904181700 95 259 0.0 1.0 0.00 0.00 0.00 61 1015.2
20260904181602 95 259 0.0 1.0 0.00 0.00 0.00 62 1015.2
20260904181500 95 259 0.0 1.0 0.00 0.00 0.00 61 1015.2
20260904181300 95 252 0.0 1.0 0.00 0.00 0.00 62 1015.2
20260904181202 95 252 0.0 1.0 0.00 0.00 0.00 61 1015.2
20260904181100 95 134 0.0 1.0 0.00 0.00 0.00 61 1015.2
20260904181000 95 147 0.0 1.0 0.00 0.00 0.00 62 1015.2
20260904180900 95 147 0.0 1.0 0.00 0.00 0.00 60 1015.3
20260904180803 95 251 0.0 0.0 0.00 0.00 0.00 62 1015.2
20260904180700 95 251 0.0 0.0 0.00 0.00 0.00 61 1015.3
20260904180600 95 251 0.0 0.0 0.00 0.00 0.00 62 1015.3
20260904180503 95 251 0.0 0.0 0.00 0.00 0.00 61 1015.3
20260904180300 95 251 0.0 0.0 0.00 0.00 0.00 62 1015.3
20260904180200 95 251 0.0 0.0 0.00 0.00 0.00 62 1015.3
20260904180003 95 251 0.0 0.0 0.00 0.00 0.00 62 1015.4
20260904175900 95 251 0.0 0.0 0.00 0.00 0.00 62 1015.3
20260904175802 95 251 0.0 0.0 0.00 0.00 0.00 61 1015.4
20260904175700 95 251 0.0 0.0 0.00 0.00 0.00 61 1015.4
20260904175601 95 251 0.0 0.0 0.00 0.00 0.00 60 1015.3
20260904175500 95 250 0.0 0.0 0.00 0.00 0.00 60 1015.4
20260904175300 95 251 0.0 0.0 0.00 0.00 0.00 62 1015.4
20260904175159 95 251 0.0 2.0 0.00 0.00 0.00 60 1015.4
20260904175100 95 251 0.0 2.0 0.00 0.00 0.00 60 1015.4
20260904175002 95 251 0.0 2.0 0.00 0.00 0.00 60 1015.4
20260904174801 95 251 0.0 2.0 0.00 0.00 0.00 64 1015.5
20260904174602 95 251 0.0 2.0 0.00 0.00 0.00 62 1015.5
20260904174500 95 251 0.0 3.0 0.00 0.00 0.00 61 1015.5
20260904174400 95 251 0.0 3.0 0.00 0.00 0.00 61 1015.6
20260904174300 95 234 0.0 3.0 0.00 0.00 0.00 62 1015.5
20260904174202 95 215 0.0 3.0 0.00 0.00 0.00 62 1015.5
20260904174000 95 215 0.0 3.0 0.00 0.00 0.00 62 1015.6
20260904173900 95 215 0.0 6.0 0.00 0.00 0.00 63 1015.6
20260904173802 95 215 0.0 6.0 0.00 0.00 0.00 62 1015.6
20260904173700 95 215 0.0 6.0 0.00 0.00 0.00 61 1015.6
20260904173500 95 242 0.0 6.0 0.00 0.00 0.00 62 1015.6
20260904173403 95 236 0.0 6.0 0.00 0.00 0.00 60 1015.6
20260904173300 95 236 0.0 6.0 0.00 0.00 0.00 60 1015.7
20260904173201 95 228 0.0 6.0 0.00 0.00 0.00 60 1015.6
20260904173002 95 315 0.0 1.0 0.00 0.00 0.00 64 1015.6
20260904172900 95 328 0.0 1.0 0.00 0.00 0.00 61 1015.6
20260904172800 95 328 0.0 1.0 0.00 0.00 0.00 61 1015.6
20260904172701 95 328 0.0 1.0 0.00 0.00 0.00 63 1015.6
20260904172602 95 329 0.0 1.0 0.00 0.00 0.00 63 1015.6
20260904172501 95 313 0.0 3.0 0.00 0.00 0.00 63 1015.6
20260904172259 95 253 0.0 3.0 0.00 0.00 0.00 64 1015.6
20260904172204 95 253 0.0 3.0 0.00 0.00 0.00 64 1015.6
20260904172100 95 253 0.0 3.0 0.00 0.00 0.00 62 1015.6
20260904172000 95 253 0.0 3.0 0.00 0.00 0.00 63 1015.6
20260904171902 95 252 0.0 3.0 0.00 0.00 0.00 61 1015.7
20260904171802 95 252 0.0 3.0 0.00 0.00 0.00 62 1015.7
20260904171659 95 252 0.0 3.0 0.00 0.00 0.00 64 1015.7
20260904171600 95 222 0.0 0.0 0.00 0.00 0.00 65 1015.7
20260904171504 95 222 0.0 0.0 0.00 0.00 0.00 65 1015.7
20260904171402 95 221 0.0 0.0 0.00 0.00 0.00 66 1015.7
20260904171259 95 221 0.0 0.0 0.00 0.00 0.00 66 1015.7
20260904171202 95 221 0.0 0.0 0.00 0.00 0.00 67 1015.7
20260904171101 95 221 0.0 0.0 0.00 0.00 0.00 67 1015.7
20260904171001 95 221 0.0 7.0 0.00 0.00 0.00 66 1015.7
20260904170900 95 221 0.0 7.0 0.00 0.00 0.00 64 1015.7
20260904170700 94 221 0.0 7.0 0.00 0.00 0.00 66 1015.7
20260904170603 94 221 0.0 7.0 0.00 0.00 0.00 65 1015.6
20260904170500 94 221 0.0 7.0 0.00 0.00 0.00 65 1015.7
20260904170404 94 221 0.0 7.0 0.00 0.00 0.00 63 1015.7
20260904170300 94 221 0.0 7.0 0.00 0.00 0.00 63 1015.7
20260904170100 94 289 0.0 0.0 0.00 0.00 0.00 65 1015.7
20260904170004 94 289 0.0 0.0 0.00 0.00 0.00 66 1015.7
20260904165700 94 289 0.0 0.0 0.00 0.00 0.00 64 1015.7
20260904165500 94 289 0.0 0.0 0.00 0.00 0.00 64 1015.7
20260904165402 94 289 0.0 0.0 0.00 0.00 0.00 65 1015.8
20260904165202 94 250 0.0 1.0 0.00 0.00 0.00 64 1015.8
20260904165002 94 248 0.0 2.0 0.00 0.00 0.00 64 1015.8
20260904164802 94 248 0.0 5.0 0.00 0.00 0.00 64 1015.8
20260904164700 94 246 0.0 5.0 0.00 0.00 0.00 65 1015.8
20260904164602 94 246 0.0 5.0 0.00 0.00 0.00 65 1015.8
20260904164501 94 246 0.0 5.0 0.00 0.00 0.00 66 1015.8
20260904164403 94 244 0.0 5.0 0.00 0.00 0.00 64 1015.8
20260904164300 94 244 0.0 5.0 0.00 0.00 0.00 63 1015.8
20260904164200 94 244 0.0 5.0 0.00 0.00 0.00 67 1015.8
20260904164059 94 232 0.0 5.0 0.00 0.00 0.00 69 1015.8
20260904164002 94 181 0.0 0.0 0.00 0.00 0.00 69 1015.8
20260904163900 94 181 0.0 0.0 0.00 0.00 0.00 70 1015.8
20260904163801 94 181 0.0 0.0 0.00 0.00 0.00 70 1015.8
20260904163701 94 182 0.0 0.0 0.00 0.00 0.00 69 1015.8
20260904163603 93 182 0.0 0.0 0.00 0.00 0.00 69 1015.8
20260904163402 93 181 0.0 0.0 0.00 0.00 0.00 69 1015.8
20260904163202 93 182 0.0 1.0 0.00 0.00 0.00 70 1015.8